                ,  0.671,  0.819,  0.966,  1.114,  1.262,  1.410,  1.558,  1.705,  1.853,  2.001,  2.149,  2.297,  2.445,  2.592,  2.740,  2.888,  3.036,  3.184,  3.331,  3.479,  3.627,  3.775,  3.923,  4.070,  4.218,  4.366,  4.514,  4.662,  4.809,  4.957,  5.105,  5.253,  5.401,  5.549,  5.696,  5.844,  5.992,  6.140,  6.288,  6.435,  6.583,  6.731,  6.879,  7.027,  7.174,  7.322,  7.470,  7.618,  7.766,  7.914,  8.061,  8.209,  8.357,  8.505,  8.653,  8.800,  8.948,  9.096,  9.244,  9.392,  9.539,  9.687,  9.835
2000/10/09 00:00,  999.0,  999.0,  999.0,   -7.3,  999.0,   -9.2,   -9.2,   -5.5,  999.0,  999.0,    1.3,    1.6,    4.1,  999.0,  999.0,  999.0,    6.8,  999.0,  999.0,  999.0,  999.0,  999.0,  999.0,  999.0,   13.2,  999.0,   13.5,   12.9,  999.0,  999.0,  999.0,  999.0,  999.0,  999.0,  999.0,  999.0,  999.0,  999.0,  999.0,  999.0,  999.0,  999.0,  999.0,  999.0,  999.0,  999.0,  999.0,  999.0,  999.0,  999.0,  999.0,  999.0,  999.0,  999.0,   29.6,   29.7,   29.2,   28.8,   28.3,   27.5,   25.4,  999.0,  999.0
2000/10/09 00:10,  999.0,  999.0,   -6.9,   -9.1,   -9.7,   -9.5,   -9.2,   -7.1,   -5.1,   -1.3,  999.0,  999.0,    2.4,  999.0,  999.0,  999.0,  999.0,    5.9,  999.0,  999.0,  999.0,  999.0,  999.0,  999.0,  999.0,  999.0,  999.0,  999.0,  999.0,  999.0,  999.0,  999.0,  999.0,  999.0,  999.0,  999.0,  999.0,  999.0,  999.0,  999.0,  999.0,  999.0,  999.0,  999.0,  999.0,  999.0,  999.0,  999.0,  999.0,  999.0,  999.0,  999.0,  999.0,  999.0,   29.1,   29.8,   28.9,   27.6,   26.4,   26.0,  999.0,  999.0,  999.0
2000/10/09 00:20,  999.0,  999.0,  999.0,   -9.9,   -9.7,   -9.2,   -7.7,   -4.8,   -1.9,    0.9,    2.7,  999.0,    3.2,  999.0,  999.0,  999.0,  999.0,  999.0,  999.0,  999.0,  999.0,  999.0,  999.0,  999.0,  999.0,  999.0,  999.0,  999.0,  999.0,  999.0,  999.0,  999.0,  999.0,  999.0,  999.0,  999.0,  999.0,  999.0,  999.0,  999.0,  999.0,  999.0,  999.0,  999.0,  999.0,  999.0,  999.0,  999.0,  999.0,  999.0,  999.0,  999.0,  999.0,  999.0,  999.0,   28.8,   28.5,   26.9,  999.0,  999.0,  999.0,  999.0,  999.0
2000/10/09 00:30,  999.0,  999.0,  999.0,  -11.2,  -11.4,  -10.0,   -7.9,   -5.4,   -2.9,   -1.9,    0.2,  999.0,    2.7,    3.6,    3.4,  999.0,  999.0,  999.0,  999.0,  999.0,  999.0,  999.0,  999.0,  999.0,  999.0,  999.0,  999.0,  999.0,  999.0,  999.0,  999.0,  999.0,  999.0,  999.0,  999.0,  999.0,  999.0,  999.0,  999.0,  999.0,  999.0,  999.0,  999.0,  999.0,  999.0,  999.0,  999.0,  999.0,  999.0,  999.0,  999.0,  999.0,  999.0,  999.0,   27.5,   27.9,   25.9,   24.8,   24.4,   23.1,   21.9,   20.6,  999.0
2000/10/09 00:40,  999.0,  999.0,   -7.8,  -10.6,   -9.2,   -9.9,   -8.5,   -8.2,   -4.4,   -3.1,   -1.8,   -0.6,    0.5,  999.0,  999.0,  999.0,  999.0,  999.0,  999.0,  999.0,  999.0,   12.0,   12.1,  999.0,  999.0,  999.0,  999.0,  999.0,  999.0,  999.0,  999.0,  999.0,  999.0,  999.0,  999.0,  999.0,  999.0,  999.0,  999.0,  999.0,  999.0,  999.0,  999.0,  999.0,  999.0,  999.0,  999.0,  999.0,  999.0,  999.0,  999.0,  999.0,  999.0,  999.0,  999.0,   26.0,   25.6,   24.3,   23.5,   22.6,   22.2,   20.3,   18.7
2000/10/09 00:50,  999.0,  999.0,  999.0,  -11.2,  -11.7,  -11.7,  -10.7,   -8.4,   -4.6,   -3.6,   -2.4,   -1.4,    0.3,  999.0,  999.0,  999.0,  999.0,  999.0,  999.0,  999.0,  999.0,   11.1,  999.0,   11.5,  999.0,  999.0,  999.0,  999.0,  999.0,  999.0,  999.0,  999.0,  999.0,  999.0,  999.0,  999.0,  999.0,  999.0,  999.0,  999.0,  999.0,  999.0,  999.0,  999.0,  999.0,  999.0,  999.0,  999.0,  999.0,  999.0,  999.0,  999.0,   28.1,   26.8,   25.5,   24.8,   24.4,   24.0,   23.9,   22.8,   20.4,   18.7,   18.8
2000/10/09 01:00,  999.0,  999.0,  999.0,  -11.4,  -11.8,   -9.2,  -10.7,   -8.9,   -7.5,   -3.5,   -2.7,   -1.4,   -1.7,    0.4,  999.0,  999.0,  999.0,  999.0,  999.0,    9.7,   10.1,   11.0,   11.5,   12.4,  999.0,  999.0,  999.0,  999.0,  999.0,  999.0,  999.0,  999.0,  999.0,  999.0,   14.1,  999.0,  999.0,  999.0,  999.0,  999.0,  999.0,  999.0,  999.0,  999.0,  999.0,  999.0,  999.0,  999.0,  999.0,  999.0,  999.0,  999.0,  999.0,  999.0,  999.0,   24.6,   23.9,  999.0,  999.0,  999.0,  999.0,   18.1,  999.0
2000/10/09 01:10,    0.1,  -10.6,  -11.8,  -13.5,  -11.5,  -11.8,  -10.6,  999.0,   -6.9,   -5.2,   -3.7,   -2.0,   -0.4,    1.7,    0.7,    1.4,    2.7,  999.0,    5.5,    7.2,    8.9,    9.3,    9.7,   11.0,   12.3,  999.0,  999.0,  999.0,  999.0,  999.0,  999.0,  999.0,  999.0,  999.0,  999.0,  999.0,  999.0,  999.0,  999.0,  999.0,  999.0,  999.0,  999.0,  999.0,  999.0,  999.0,  999.0,  999.0,  999.0,  999.0,  999.0,  999.0,  999.0,  999.0,  999.0,  999.0,   23.2,   23.5,   22.8,   22.2,   21.1,  999.0,  999.0
2000/10/09 01:20,   -9.8,  -10.5,  -11.9,  -13.6,  -14.2,  -13.2,  999.0,  999.0,  999.0,  999.0,  999.0,  999.0,  999.0,   -1.0,    2.8,    1.3,    3.0,    2.8,    4.7,    8.2,    9.1,   10.3,   11.4,   12.3,   13.0,  999.0,  999.0,  999.0,  999.0,  999.0,  999.0,  999.0,  999.0,  999.0,  999.0,  999.0,  999.0,  999.0,  999.0,  999.0,  999.0,  999.0,  999.0,  999.0,  999.0,  999.0,  999.0,  999.0,  999.0,  999.0,  999.0,  999.0,   21.9,   21.4,   21.0,   21.3,   22.1,   21.9,   21.2,   21.1,   22.0,   19.2,   17.9
2000/10/09 01:30,  999.0,   -6.2,  -11.2,  -14.2,  -14.7,  -13.8,  -10.4,   -8.5,   -6.8,   -4.3,   -2.2,   -1.8,    0.2,    1.9,    4.5,    4.3,  999.0,   10.0,    7.3,    7.8,   10.5,   10.2,   11.1,   13.3,   14.6,   15.8,   16.0,  999.0,  999.0,  999.0,  999.0,  999.0,  999.0,  999.0,  999.0,  999.0,  999.0,  999.0,  999.0,  999.0,  999.0,  999.0,  999.0,  999.0,  999.0,  999.0,  999.0,  999.0,   18.0,   18.8,   21.2,   23.6,   25.4,   25.6,   24.2,   24.1,   23.3,   21.1,   17.6,   15.5,   15.2,   11.9,   14.0
2000/10/09 01:40,   -4.7,  999.0,  999.0,  -13.1,  -13.9,  -12.7,   -9.7,   -9.1,   -5.4,   -4.1,   -3.2,   -2.0,   -0.1,    1.8,    3.5,    4.5,    6.2,    7.0,    6.2,    6.2,    7.3,   10.6,   11.4,   10.8,   14.6,   12.6,   12.3,   11.5,  999.0,  999.0,   16.7,  999.0,  999.0,  999.0,  999.0,  999.0,  999.0,  999.0,  999.0,  999.0,  999.0,  999.0,  999.0,  999.0,  999.0,  999.0,  999.0,  999.0,   22.4,  999.0,   27.1,   29.1,   29.5,   29.0,   26.5,   23.8,   20.2,   17.3,   15.1,   13.4,   11.9,   11.4,   11.7
2000/10/09 01:50,   -3.2,  -11.9,  -13.6,  -13.3,  -11.8,  -12.7,   -9.3,   -8.7,   -6.5,   -2.4,   -1.3,    1.0,    1.5,    0.8,    3.0,    2.9,    4.9,    6.7,    7.1,   11.7,   14.7,   14.0,   13.9,   13.4,   13.8,   14.6,   14.6,   15.3,   15.3,   15.2,   16.0,   15.9,   16.5,   16.7,   16.4,  999.0,  999.0,  999.0,  999.0,  999.0,  999.0,  999.0,  999.0,  999.0,  999.0,  999.0,  999.0,  999.0,  999.0,  999.0,  999.0,   24.4,   25.9,   25.4,   24.0,   21.7,   19.0,   16.7,   14.7,   13.1,   12.5,   12.9,   13.3
2000/10/09 02:00,   -8.3,   -8.7,   -9.3,  -14.0,  -14.3,  -12.8,  -10.5,   -8.6,   -5.8,   -3.6,   -1.8,    0.0,    2.3,    3.6,    3.6,    4.4,    2.4,    3.0,    2.6,    4.4,    9.9,   12.2,   14.2,   13.8,   13.7,   12.9,   14.2,   14.0,   13.6,   14.3,   14.0,   13.9,   14.5,   14.4,   15.0,  999.0,  999.0,  999.0,  999.0,  999.0,  999.0,  999.0,  999.0,  999.0,  999.0,  999.0,  999.0,  999.0,  999.0,  999.0,   25.7,   27.0,   26.7,   24.6,   21.5,   18.9,   16.6,   14.8,   11.9,  999.0,  999.0,  999.0,  999.0
2000/10/09 02:10,   -8.7,   -8.4,  -11.0,  -11.4,  -12.9,  -12.7,  -11.8,   -9.6,   -6.4,   -4.0,   -4.0,   -3.4,    0.8,    1.3,    4.3,    5.5,    7.6,    4.5,    6.4,    9.4,   10.7,   12.7,   14.7,   14.6,   14.4,   16.8,  999.0,  999.0,   11.7,   10.9,  999.0,  999.0,  999.0,  999.0,  999.0,  999.0,  999.0,  999.0,  999.0,  999.0,  999.0,  999.0,  999.0,  999.0,  999.0,  999.0,  999.0,   25.3,   26.3,   26.4,   26.7,   26.1,   22.7,   19.9,   17.2,   15.2,   14.1,  999.0,    6.7,  999.0,  999.0,  999.0,  999.0
2000/10/09 02:20,   -8.4,   -9.0,  -10.8,  -11.2,  -12.3,  -11.7,  -11.7,   -7.8,   -6.3,   -4.6,   -2.0,   -1.3,    1.5,    2.5,    4.0,    3.4,    2.4,    5.0,    5.1,    7.1,    9.1,   10.9,    9.8,   11.4,   13.4,   14.1,   15.5,  999.0,  999.0,  999.0,  999.0,  999.0,  999.0,  999.0,  999.0,  999.0,  999.0,  999.0,  999.0,  999.0,   21.1,   21.6,   23.4,   26.3,   28.0,   30.0,   29.5,   28.8,   27.0,   24.2,   21.4,   18.8,   16.8,   14.2,   12.3,   10.1,    8.6,    7.0,    5.9,    4.8,    5.1,    6.3,    7.5
2000/10/09 02:30,   -8.5,   -9.5,  -11.4,  -10.9,  -12.3,  -12.8,  -11.6,   -9.8,   -7.2,   -5.9,   -5.5,   -2.6,   -2.4,    0.7,    1.3,    5.9,   11.5,    9.7,   13.6,    8.6,    9.4,    9.8,   10.6,   12.7,   11.5,   11.3,   12.7,   13.7,   15.5,  999.0,  999.0,  999.0,  999.0,   17.6,   19.2,   19.9,   20.6,   21.5,   23.7,   24.3,   25.4,   26.9,   28.0,   27.7,   27.5,   18.8,   15.3,   14.9,   11.9,   10.8,    9.0,    7.4,    7.9,    6.8,    6.3,    5.7,    5.5,    5.1,    5.2,    7.4,    9.7,   11.9,   13.6
2000/10/09 02:40,  999.0,  999.0,  999.0,  -11.7,  -10.9,  -12.7,  -11.2,   -9.4,   -9.1,  999.0,  999.0,   -1.6,    0.6,  999.0,  999.0,    1.2,    2.4,    4.5,    6.5,    6.9,  999.0,  999.0,  999.0,  999.0,  999.0,   11.7,   12.0,  999.0,   12.7,   13.3,   13.4,   13.0,   15.1,  999.0,  999.0,   24.6,   28.2,   32.4,  999.0,   29.4,   28.2,   25.7,   21.0,   18.0,   16.1,   12.7,    9.7,    7.4,    5.7,    5.1,    5.8,    5.8,    6.4,    6.8,    6.1,    5.3,    5.4,    6.2,  999.0,    9.2,   10.5,   12.1,   13.6
2000/10/09 02:50,   -9.7,  -16.9,  -12.0,  -12.7,  -13.3,  -14.9,  -10.9,   -9.9,   -8.3,   -8.1,  999.0,  999.0,  999.0,    4.1,    4.9,    5.3,    6.0,    6.3,  999.0,  999.0,  999.0,    9.1,   12.1,   11.2,   14.4,   15.6,   15.4,   14.2,   16.2,   15.5,   15.2,   14.8,   16.6,   19.4,   22.3,   26.1,   28.4,   28.4,   25.6,   24.5,   23.6,   22.3,   19.0,   16.9,   15.6,   13.3,    9.7,    7.8,    7.1,    6.9,    6.5,    6.7,    7.2,    7.9,    6.5,    5.2,    4.7,    5.9,    8.0,    9.6,   11.8,   13.0,  999.0
2000/10/09 03:00,  -15.9,  -10.6,  -12.4,  -11.5,  -13.1,  -12.5,  -10.3,   -8.2,   -8.2,  999.0,   -3.0,    0.2,    3.0,    5.4,    6.9,    7.8,  999.0,  999.0,  999.0,  999.0,  999.0,  999.0,  999.0,  999.0,   13.2,   14.1,   14.4,   17.0,   14.9,   16.5,   15.7,   16.3,   19.8,   23.0,   23.8,   23.5,   23.4,   23.3,   24.4,   24.3,   22.7,   20.0,   16.1,   13.7,   11.6,   10.3,    9.5,    9.3,    9.0,    8.5,    8.8,    9.8,   11.0,   11.8,   11.5,   10.1,    8.2,    7.1,    8.3,    9.1,   10.6,   11.0,   11.7
2000/10/09 03:10,  999.0,  -10.1,  -11.9,  -12.2,  -12.2,  -12.1,  -10.0,  999.0,   -7.7,   -5.4,   -1.4,    1.4,    4.7,    6.0,    6.3,    7.9,    8.2,  999.0,  999.0,  999.0,  999.0,  999.0,   11.1,   12.5,   13.3,   14.6,   14.5,  999.0,  999.0,  999.0,  999.0,  999.0,  999.0,  999.0,  999.0,  999.0,  999.0,  999.0,   21.9,   22.0,   22.9,   23.3,   22.5,   20.9,   17.3,   13.9,   11.0,    9.4,    8.7,    8.7,    9.3,   10.3,   11.1,   11.1,    9.4,    7.7,    6.3,    6.9,  999.0,  999.0,  999.0,  999.0,  999.0
2000/10/09 03:20,  999.0,  -10.1,  -11.8,  -12.1,  -12.1,  -12.7,   -9.4,   -7.6,   -5.1,   -3.2,   -0.2,    3.1,    4.9,    6.1,    7.0,    8.5,   10.1,   11.3,   10.8,    9.7,  999.0,   11.3,   12.6,   12.4,   13.1,   12.2,   13.2,  999.0,   16.1,   17.0,   17.4,  999.0,   23.6,  999.0,  999.0,  999.0,  999.0,  999.0,  999.0,   23.8,   24.9,   26.3,   24.6,   21.8,   18.2,   15.6,   13.4,   11.6,   10.1,    8.9,    8.2,    8.8,    9.7,   10.0,    9.0,    7.5,  999.0,  999.0,  999.0,  999.0,  999.0,  999.0,  999.0
2000/10/09 03:30,  999.0,  999.0,  999.0,  -13.3,  999.0,  -12.4,   -7.4,   -6.3,   -5.1,   -2.3,    1.1,    3.5,    5.7,    7.3,    8.3,  999.0,  999.0,  999.0,  999.0,  999.0,    8.7,    9.5,   11.0,   11.7,   11.5,   12.2,  999.0,   15.4,   16.4,   18.0,   19.4,   22.5,   23.5,  999.0,  999.0,  999.0,  999.0,  999.0,  999.0,   21.9,   23.0,   22.6,   20.9,   17.6,   14.0,   10.6,    8.7,    7.9,    7.4,    7.5,    6.6,    5.1,    4.1,    3.4,    4.1,    4.9,    5.7,    6.9,    8.4,  999.0,  999.0,  999.0,  999.0
2000/10/09 03:40,   -0.1,  999.0,  999.0,  999.0,  -11.2,   -9.4,   -7.8,   -5.5,   -3.6,   -0.3,    3.2,    6.4,    7.5,    8.6,    8.8,  999.0,  999.0,  999.0,  999.0,   10.2,   10.9,  999.0,  999.0,  999.0,  999.0,  999.0,  999.0,  999.0,  999.0,  999.0,   17.6,   16.9,   17.9,   19.5,  999.0,   20.9,   20.8,   19.9,   19.3,   19.6,   21.6,   22.1,   20.4,   17.8,   14.5,   10.7,    9.1,    7.7,    6.9,    6.3,    6.4,    7.5,   10.9,   11.9,   13.1,   14.7,   15.9,   16.0,   15.8,   16.0,   16.1,   15.5,  999.0
2000/10/09 03:50,  999.0,  999.0,  999.0,  999.0,   -8.3,   -9.2,   -6.4,   -3.5,    0.0,    5.0,    6.7,    9.6,  999.0,   10.7,   10.7,  999.0,  999.0,  999.0,  999.0,  999.0,  999.0,   11.9,  999.0,   14.2,   13.2,   13.4,   14.3,   13.7,   14.7,   14.8,   16.0,   17.2,   17.8,   18.4,   18.7,   20.3,   21.6,   23.9,   25.2,   24.9,   22.7,   20.1,   18.8,   15.5,   13.7,   11.2,    9.3,    7.6,    6.0,    5.0,    6.1,    8.3,   10.2,   11.5,   12.7,   13.9,   15.1,   15.3,   14.8,   14.8,   15.6,   16.8,   18.2
2000/10/09 04:00,  -10.5,  -10.7,  -12.0,  -11.1,   -9.4,   -8.2,   -5.9,   -1.4,    4.1,    7.2,    8.4,    9.5,   11.4,   13.3,   14.5,   15.3,   14.7,   14.0,   13.9,   13.3,  999.0,   14.5,   15.4,   14.6,   14.5,   14.1,   13.7,   12.0,   12.6,   13.3,   13.6,   15.6,   17.9,   20.1,   22.6,   26.3,   28.0,   28.4,   25.5,   22.0,   18.2,   15.7,   13.6,   11.7,    9.2,    7.4,    6.0,    6.1,    7.5,    8.9,   10.4,   11.2,   12.3,   12.7,   13.3,   14.9,   15.4,   16.5,   17.5,   18.9,   19.5,   19.4,   19.7
2000/10/09 04:10,  -10.5,  -10.3,  -12.2,  -11.5,   -8.8,   -7.2,   -5.0,   -0.1,    3.8,    5.4,    8.0,   10.0,   10.2,    9.6,   10.9,   13.0,   14.6,   16.1,   16.4,   16.6,   17.9,   17.3,   17.7,   17.9,   17.8,   17.6,   18.6,   19.5,   20.3,   20.6,   21.8,   22.8,   24.8,   25.8,  999.0,  999.0,  999.0,   20.4,   18.3,   15.8,   13.8,   11.4,    9.5,    8.5,    7.4,    6.9,    7.3,    7.9,    9.7,   11.2,   12.7,   13.9,   15.1,   15.8,   16.2,   16.3,   16.8,   17.8,   17.9,   18.2,   18.3,   18.3,   18.5
2000/10/09 04:20,   -9.5,  -11.5,  -12.7,  -11.2,   -8.9,   -6.6,   -1.7,    2.2,    3.5,    5.0,    5.9,    6.8,    6.4,    6.8,    6.4,    7.8,    9.8,   10.1,   11.3,   12.0,   12.6,   13.8,   15.1,   15.7,   16.7,   19.1,   21.9,   23.9,   25.5,   26.6,   27.4,   26.7,   24.5,   21.7,   19.6,   17.6,   16.0,   13.9,   11.8,   10.5,   10.2,   10.5,   11.3,   12.0,   12.7,   13.3,   12.5,   12.3,   12.2,   12.6,   13.0,   13.5,   13.9,   14.0,   14.0,   14.6,   14.5,   13.0,   14.0,   13.5,   15.1,   14.9,   14.1
2000/10/09 04:30,   -9.8,  -10.5,  -12.5,  -11.8,   -9.3,   -6.3,   -1.1,    1.7,    2.9,    4.8,    5.9,    6.9,   10.8,   11.8,    9.3,   12.0,    9.3,   10.8,   13.2,   15.1,   13.6,   17.2,   20.1,   21.1,   20.8,   21.8,   21.9,   22.0,   22.9,   21.9,   20.3,   19.1,   16.3,   14.5,   13.2,   11.3,   10.3,    9.5,    9.4,    9.2,    9.9,    9.8,    9.9,   10.1,   10.1,   10.0,    9.8,    9.8,    9.6,    9.5,    9.4,    9.6,   10.3,   11.2,   11.9,   12.2,   12.0,   11.8,   11.6,   10.9,   10.0,    9.8,  999.0
2000/10/09 04:40,   -8.3,   -9.6,  -12.0,  -11.2,   -9.4,   -7.3,   -4.1,    0.6,    2.5,    3.2,    4.7,    6.0,    8.0,    8.9,   10.6,   12.5,   16.2,   16.7,   17.1,   17.4,   17.5,   17.6,   18.0,   18.0,   18.4,   19.4,   20.8,   22.0,   23.4,   23.2,   20.3,   17.7,   15.3,   12.5,   11.2,   10.0,    8.7,    7.7,    8.2,    9.9,    9.9,    9.6,    9.6,    9.9,    9.9,    8.9,    8.7,    8.3,    8.2,    8.2,    8.2,    8.3,    8.7,    9.1,    9.6,    9.9,    9.9,   10.1,   10.1,    9.2,    8.9,    8.5,    8.3
2000/10/09 04:50,   -7.2,  -10.6,  -12.6,  -12.4,   -9.0,   -6.0,   -2.1,    3.0,    6.0,    6.5,    6.6,    7.1,    8.9,    7.7,    9.9,    9.4,   12.5,   12.7,   13.3,   14.5,   16.4,   17.0,   17.8,   17.5,   18.2,   19.2,   20.3,   22.4,   24.5,   25.0,   24.3,   22.7,   20.6,   18.5,   16.9,   13.7,   12.9,   11.7,   11.2,   11.2,   10.9,   11.2,   11.2,   10.9,   10.5,   10.1,    9.4,    9.6,    9.7,   10.4,   10.6,   10.6,   10.9,   11.3,   11.6,   11.5,   11.2,   11.4,   11.4,   11.9,   11.6,   12.2,   12.9
2000/10/09 05:00,   -8.6,  -10.7,  -12.3,  -10.8,   -7.9,   -4.8,   -2.0,    1.8,    5.1,    8.2,   10.2,   10.3,   10.0,    9.3,    8.8,    9.4,   10.4,   11.5,   13.3,   14.9,   16.6,   17.7,   18.2,   18.6,   20.0,   21.4,   22.6,   24.9,   26.1,   26.2,   26.2,   24.5,   21.2,   17.3,   15.8,   13.8,   13.7,   11.7,   11.7,   11.3,   11.6,   11.1,   10.7,   10.8,   10.4,   10.4,   11.2,   11.2,   11.1,   10.8,   10.7,   10.8,   10.9,   11.1,   11.2,   11.5,  999.0,   11.9,   12.1,   12.5,   13.2,   12.7,   13.2
2000/10/09 05:10,   -7.7,   -9.3,  -10.7,   -9.9,   -6.9,   -5.6,   -3.9,   -0.7,    2.6,    6.7,    9.2,   10.5,   11.0,   10.9,   10.1,   10.5,   10.8,   12.8,   14.2,   15.0,   16.8,   18.4,   19.8,   19.3,   19.2,   20.3,   20.8,   21.1,   21.6,   22.3,   22.3,   22.0,   20.2,   19.4,   18.1,   16.6,   13.7,   12.5,   11.0,   10.1,    9.5,    9.6,    8.7,    9.6,    9.5,   10.2,    9.4,    8.8,    9.0,    9.2,    9.7,   10.0,   10.8,   11.7,   12.3,   12.1,   11.8,   11.4,   11.6,   12.4,   12.2,   12.1,   12.6
2000/10/09 05:20,   -7.0,   -9.6,  -12.0,  -10.8,   -7.7,   -5.3,   -2.2,    1.4,    4.3,    6.2,    7.1,    8.1,    8.5,    9.9,    9.5,    9.4,   10.0,   11.2,   12.9,   15.3,   16.7,   17.0,   17.0,   17.2,   17.4,   18.5,   19.9,   21.0,   20.4,   19.2,   18.6,   17.9,   16.9,   14.4,   13.3,   12.3,   11.3,   10.8,   10.6,   10.9,   11.3,   11.4,   11.3,   10.7,   10.8,   10.8,   10.6,   10.4,   10.6,   10.9,   11.0,   11.5,   12.1,   12.4,   12.0,   10.9,    9.5,   10.2,    9.6,    7.4,    6.9,    6.9,    6.8
2000/10/09 05:30,   -5.9,  -10.0,  -10.8,   -9.0,   -5.4,   -1.7,    1.7,    4.7,    6.7,    7.7,    9.1,    9.4,   10.0,   10.0,   10.2,   11.0,   12.1,   14.0,   15.9,   16.4,   17.4,   16.7,   16.6,   17.1,   17.3,   19.1,   20.0,   19.9,   19.5,   18.3,   17.3,   15.8,   13.9,   12.4,   11.2,   10.3,    9.4,    8.6,    7.9,    8.0,    8.1,    8.5,    8.7,    8.7,    9.0,    9.1,    9.2,    9.7,   10.3,   11.1,   12.2,   11.0,   10.5,    9.6,    8.3,    7.4,    6.6,    6.4,    6.2,    6.5,    6.6,    9.6,    9.4
2000/10/09 05:40,   -7.0,   -9.2,   -8.2,   -5.2,   -1.9,    2.2,    6.5,    7.8,    8.3,    9.4,    9.8,   11.0,   12.3,   13.3,   14.8,   15.3,   17.3,   16.8,   16.8,   17.4,   17.2,   17.7,   18.1,   17.8,   17.6,   17.7,   16.4,   16.6,   16.0,   15.0,   14.5,   12.9,   12.0,   10.6,   10.9,   10.3,   10.7,   11.2,   10.9,   12.5,   12.4,   11.7,   11.9,  999.0,   11.4,   10.1,    9.0,    8.9,    7.3,    6.2,    5.1,    5.4,    4.9,    5.0,    5.0,    6.0,    6.6,    6.0,    7.3,    8.0,    9.8,   10.1,   10.7
2000/10/09 05:50,   -6.8,   -9.8,   -8.3,   -4.7,   -1.8,   -0.1,    3.7,    4.3,    3.6,    5.6,    7.5,    7.2,    7.4,    7.8,    8.8,    9.1,    9.9,   14.2,   16.1,   15.2,   14.3,   13.9,   14.0,   15.0,   15.2,   16.0,   16.3,   17.4,   15.8,   15.4,   16.3,   15.8,   14.8,   15.3,   14.8,   13.9,   13.6,   13.5,   13.5,   12.9,   10.4,   12.8,  999.0,   11.8,  999.0,  999.0,  999.0,  999.0,  999.0,  999.0,   13.7,   16.5,   13.0,   14.0,   12.0,   12.2,  999.0,  999.0,  999.0,  999.0,  999.0,  999.0,  999.0
2000/10/09 06:00,   -6.9,  -10.4,   -7.9,   -7.5,   -2.5,   -1.8,    5.1,    5.9,    6.9,    8.1,    9.8,   10.1,   10.6,    9.0,    9.3,   11.1,   11.5,   13.6,   15.3,   14.5,   13.9,   15.2,   15.6,   15.8,   17.1,   16.7,   15.9,   16.9,   16.9,   17.4,   17.3,   17.7,   17.7,   16.5,   15.8,   15.4,   15.0,   14.5,   12.4,   11.4,  999.0,  999.0,  999.0,  999.0,  999.0,  999.0,  999.0,  999.0,  999.0,  999.0,  999.0,  999.0,  999.0,  999.0,  999.0,  999.0,  999.0,  999.0,  999.0,  999.0,  999.0,  999.0,  999.0
2000/10/09 06:10,   -5.6,   -7.3,   -8.4,   -6.4,   -2.9,   -0.4,    2.4,    7.2,    9.3,    5.9,    6.0,    6.0,    5.9,    9.6,   10.5,    9.5,   10.5,   10.9,   11.5,   13.0,   14.8,   15.7,   18.2,   18.1,   19.7,   21.3,   22.2,   21.6,   21.2,   21.2,   20.2,   19.7,   18.7,  999.0,   19.5,   18.3,   18.2,   17.5,   16.7,   16.6,  999.0,  999.0,  999.0,  999.0,  999.0,  999.0,  999.0,  999.0,  999.0,  999.0,  999.0,  999.0,  999.0,  999.0,  999.0,  999.0,  999.0,  999.0,  999.0,  999.0,  999.0,  999.0,  999.0
2000/10/09 06:20,   -4.3,   -6.7,   -9.4,   -7.7,   -5.5,   -3.5,    0.0,    4.2,    7.0,    8.7,    9.9,   11.4,   13.3,   14.8,   15.7,   16.5,   16.7,   17.3,   17.0,   16.7,   17.6,   19.5,   18.3,   18.4,   17.6,   18.3,   18.7,   19.7,   20.2,   20.4,   20.9,   20.8,   21.8,   21.4,   20.9,   19.8,   18.4,   17.2,   16.9,   16.8,  999.0,  999.0,  999.0,  999.0,  999.0,  999.0,  999.0,  999.0,  999.0,  999.0,  999.0,  999.0,  999.0,  999.0,  999.0,  999.0,  999.0,  999.0,  999.0,  999.0,  999.0,  999.0,  999.0
2000/10/09 06:30,   -4.5,   -7.2,   -8.9,   -6.5,   -5.4,   -3.3,   -0.6,    3.4,    6.4,    7.8,    8.6,   10.0,   13.1,   15.0,   15.6,   14.7,   16.6,   17.5,   17.1,   18.0,   18.1,   19.9,   20.5,   21.6,  999.0,   20.6,   19.4,   19.2,   18.7,   17.8,   18.0,  999.0,   15.3,   14.6,   12.4,  999.0,   12.0,   12.2,  999.0,  999.0,  999.0,  999.0,  999.0,  999.0,  999.0,  999.0,  999.0,  999.0,  999.0,  999.0,  999.0,  999.0,  999.0,  999.0,  999.0,  999.0,  999.0,  999.0,  999.0,  999.0,  999.0,  999.0,  999.0
2000/10/09 06:40,  999.0,   -3.4,   -7.6,   -7.6,   -5.5,   -2.4,   -2.0,    4.3,    8.6,   12.3,   12.4,   12.4,   12.6,   14.5,   15.7,   16.6,   15.5,   16.1,   15.6,   16.5,   16.2,   15.5,   16.1,   17.0,   18.1,   19.1,   19.3,   18.2,   17.2,   16.9,   16.8,   16.3,   15.9,   17.2,   17.7,   17.6,   16.6,   15.1,   15.3,   14.9,   14.8,   15.6,   15.4,   15.7,   16.4,   16.7,  999.0,  999.0,  999.0,  999.0,  999.0,  999.0,  999.0,  999.0,  999.0,  999.0,  999.0,  999.0,  999.0,  999.0,  999.0,  999.0,  999.0
2000/10/09 06:50,   -0.1,  999.0,   -4.6,   -8.8,   -6.6,   -4.4,   -1.3,   -2.5,    2.4,    7.4,    9.6,    5.8,    6.3,    9.0,    8.5,    7.6,   12.6,   15.4,   13.1,   13.7,   15.9,   16.0,   15.4,   15.7,   15.8,   17.7,   18.7,   21.0,   22.4,   22.7,   25.2,   26.7,   24.4,   24.7,   23.2,   20.3,   16.6,   12.6,   11.1,   10.8,   10.1,   10.6,   11.1,  999.0,  999.0,  999.0,  999.0,  999.0,  999.0,  999.0,  999.0,  999.0,  999.0,  999.0,  999.0,  999.0,  999.0,  999.0,  999.0,  999.0,  999.0,  999.0,  999.0
2000/10/09 07:00,   -3.8,   -3.6,   -4.9,   -7.1,   -6.6,   -3.9,   -2.3,   -2.0,    2.1,    5.6,    9.5,    6.5,   10.5,   11.6,   12.9,   15.4,   15.0,   16.7,   16.6,   16.5,   18.8,   17.3,   17.2,   20.3,   20.5,   21.4,   22.2,   24.9,   25.9,   20.8,   19.2,  999.0,  999.0,   14.9,   15.1,   11.8,   12.8,   12.7,   12.9,   12.9,   11.9,   11.4,   11.3,  999.0,  999.0,   12.6,   13.9,  999.0,  999.0,  999.0,  999.0,  999.0,  999.0,  999.0,  999.0,  999.0,  999.0,  999.0,  999.0,  999.0,  999.0,  999.0,  999.0
2000/10/09 07:10,   -2.7,   -3.5,   -3.5,   -6.7,   -7.0,   -4.5,   -2.7,   -1.8,    0.7,    5.6,    5.7,   10.4,   11.7,   12.1,   10.4,   13.0,   13.3,   18.5,   19.0,   19.3,   18.6,   19.0,   18.2,   17.2,   20.2,   20.6,   17.0,   16.4,   15.8,   13.9,   14.7,   15.2,   15.7,   15.8,   16.1,   16.3,   14.7,   14.7,   15.5,   15.4,   14.5,   13.8,   13.9,   14.3,   15.7,   16.8,   18.7,   18.5,  999.0,  999.0,  999.0,  999.0,  999.0,  999.0,  999.0,  999.0,  999.0,  999.0,  999.0,  999.0,  999.0,  999.0,  999.0
2000/10/09 07:20,   -3.7,   -5.5,   -6.1,   -7.8,   -6.3,   -6.3,   -5.2,   -2.4,    0.1,    1.9,    7.0,   11.8,  999.0,   12.3,   13.9,   13.3,   13.1,   14.1,   18.8,   14.4,   15.2,   13.9,   15.9,   13.8,   14.4,   14.8,   15.8,   15.4,   18.9,   15.8,   17.1,   17.4,   17.2,   16.5,   17.2,  999.0,  999.0,  999.0,  999.0,  999.0,  999.0,  999.0,  999.0,  999.0,  999.0,  999.0,  999.0,  999.0,  999.0,  999.0,  999.0,  999.0,  999.0,  999.0,  999.0,  999.0,  999.0,  999.0,  999.0,  999.0,  999.0,  999.0,  999.0
2000/10/09 07:30,    0.7,  999.0,  -10.3,   -6.9,   -8.1,   -5.4,    0.9,    3.6,    8.0,   11.3,   12.1,   12.3,   13.8,   13.6,   13.4,   13.2,   11.6,   14.9,   14.5,   14.0,   13.3,   13.0,   14.6,   14.5,   14.8,   16.2,   17.5,   17.4,   16.4,   18.3,   18.4,   18.0,  999.0,  999.0,   17.9,  999.0,  999.0,  999.0,  999.0,  999.0,  999.0,  999.0,  999.0,  999.0,  999.0,  999.0,  999.0,  999.0,  999.0,  999.0,  999.0,  999.0,  999.0,  999.0,  999.0,  999.0,  999.0,  999.0,  999.0,  999.0,  999.0,  999.0,  999.0
2000/10/09 07:40,   -8.7,   -2.6,   -9.9,   -7.4,   -8.5,   -2.7,   -2.9,   -0.5,    1.6,    3.1,    4.2,    7.5,    9.1,   10.0,    7.9,    9.2,   12.4,   13.7,   11.8,   11.9,   13.5,   11.8,   14.0,   13.2,   16.5,   17.2,   17.0,   16.5,   16.1,   17.7,   17.5,   17.3,   17.7,   18.4,   18.2,  999.0,  999.0,  999.0,  999.0,  999.0,  999.0,  999.0,  999.0,  999.0,  999.0,  999.0,  999.0,  999.0,  999.0,  999.0,  999.0,  999.0,  999.0,  999.0,  999.0,  999.0,  999.0,  999.0,  999.0,  999.0,  999.0,  999.0,  999.0
2000/10/09 07:50,   -7.3,   -7.5,   -8.3,  -15.4,  -10.9,   -8.1,   -2.8,   -1.3,    0.1,    5.4,    9.2,   12.2,   15.2,   12.1,   13.2,   14.5,   14.0,   14.6,   16.3,   17.1,   14.9,   14.2,   14.6,   15.4,   15.9,   15.8,   15.5,   16.2,  999.0,   15.1,   15.8,  999.0,  999.0,  999.0,  999.0,  999.0,  999.0,  999.0,  999.0,  999.0,  999.0,  999.0,  999.0,  999.0,  999.0,  999.0,  999.0,  999.0,  999.0,  999.0,  999.0,  999.0,  999.0,  999.0,  999.0,  999.0,  999.0,  999.0,  999.0,  999.0,  999.0,  999.0,  999.0
2000/10/09 08:00,   -6.3,   -7.1,   -8.8,   -9.4,   -9.3,   -5.1,   -1.4,    2.9,    7.5,    8.0,   11.4,   11.9,   12.8,   11.0,   12.2,   13.5,   14.1,   13.8,   14.2,   14.7,   14.2,   14.7,   14.2,   14.2,   15.7,  999.0,  999.0,  999.0,  999.0,  999.0,  999.0,  999.0,  999.0,  999.0,  999.0,  999.0,  999.0,  999.0,  999.0,  999.0,  999.0,  999.0,  999.0,  999.0,  999.0,  999.0,  999.0,  999.0,  999.0,  999.0,  999.0,  999.0,  999.0,  999.0,  999.0,  999.0,  999.0,  999.0,  999.0,  999.0,  999.0,  999.0,  999.0
2000/10/09 08:10,   -0.2,  999.0,   -9.2,   -7.7,   -5.6,   -3.5,    0.6,    5.6,    8.2,    9.4,   10.3,   11.8,   13.5,   13.0,   13.8,   14.7,   14.4,   13.9,   14.1,   14.4,   14.0,   13.9,   13.6,   13.8,  999.0,  999.0,  999.0,  999.0,  999.0,  999.0,  999.0,  999.0,  999.0,  999.0,  999.0,  999.0,  999.0,  999.0,  999.0,  999.0,  999.0,  999.0,  999.0,  999.0,  999.0,  999.0,  999.0,  999.0,  999.0,  999.0,  999.0,  999.0,  999.0,  999.0,  999.0,  999.0,  999.0,  999.0,  999.0,  999.0,  999.0,  999.0,  999.0
2000/10/09 08:20,   -0.0,   -4.2,  999.0,   -6.4,   -5.0,   -2.6,    1.3,    3.8,    8.1,    9.6,   10.8,   10.9,   11.9,   12.2,   12.3,   12.6,   13.3,   13.0,   13.9,   14.4,   14.9,   13.5,   13.2,   13.0,   14.0,  999.0,  999.0,  999.0,  999.0,  999.0,  999.0,  999.0,  999.0,  999.0,  999.0,  999.0,  999.0,  999.0,  999.0,  999.0,  999.0,  999.0,  999.0,  999.0,  999.0,  999.0,  999.0,  999.0,  999.0,  999.0,  999.0,  999.0,  999.0,  999.0,  999.0,  999.0,  999.0,  999.0,  999.0,  999.0,  999.0,  999.0,  999.0
2000/10/09 08:30,    0.0,  999.0,   -1.2,   -7.6,   -4.1,   -2.0,    3.0,    6.5,    7.9,    9.4,   10.3,   10.0,   10.1,   10.7,   12.6,   14.0,   14.5,   12.9,   13.0,   12.6,   12.8,   13.4,   12.7,   12.7,   14.7,  999.0,  999.0,  999.0,  999.0,  999.0,  999.0,  999.0,  999.0,  999.0,  999.0,  999.0,  999.0,  999.0,  999.0,  999.0,  999.0,  999.0,  999.0,  999.0,  999.0,  999.0,  999.0,  999.0,  999.0,  999.0,  999.0,  999.0,  999.0,  999.0,  999.0,  999.0,  999.0,  999.0,  999.0,  999.0,  999.0,  999.0,  999.0
2000/10/09 08:40,   -0.0,   -2.6,   -3.2,   -8.2,   -4.0,   -3.4,    3.9,    6.3,    7.6,    9.0,    9.6,   10.6,   10.8,   10.9,   12.4,   13.0,   15.8,   15.0,   15.3,   15.1,   15.0,   15.9,   17.0,   13.9,   14.1,   15.5,  999.0,  999.0,  999.0,  999.0,  999.0,  999.0,  999.0,  999.0,  999.0,  999.0,  999.0,  999.0,  999.0,  999.0,  999.0,  999.0,  999.0,  999.0,  999.0,  999.0,  999.0,  999.0,  999.0,  999.0,  999.0,  999.0,  999.0,  999.0,  999.0,  999.0,  999.0,  999.0,  999.0,  999.0,  999.0,  999.0,  999.0
2000/10/09 08:50,   -0.1,  999.0,   -8.4,   -8.5,   -4.5,    0.0,    3.5,    5.7,    7.9,    8.5,    8.9,    8.9,    9.9,   10.4,   10.8,   11.3,   11.1,   11.1,   11.7,   12.9,   13.4,   14.1,  999.0,  999.0,   13.9,   14.9,  999.0,  999.0,  999.0,  999.0,  999.0,  999.0,  999.0,  999.0,  999.0,  999.0,  999.0,  999.0,  999.0,  999.0,  999.0,  999.0,  999.0,  999.0,  999.0,  999.0,  999.0,  999.0,  999.0,  999.0,  999.0,  999.0,  999.0,  999.0,  999.0,  999.0,  999.0,  999.0,  999.0,  999.0,  999.0,  999.0,  999.0
2000/10/09 09:00,  999.0,   -1.9,  999.0,   -7.1,   -3.7,    2.3,    3.9,    5.9,    7.0,    8.4,   10.9,   12.2,   13.3,   12.8,   13.8,   14.4,   13.1,  999.0,  999.0,  999.0,  999.0,  999.0,  999.0,   14.2,  999.0,  999.0,  999.0,  999.0,  999.0,  999.0,  999.0,  999.0,  999.0,  999.0,  999.0,  999.0,  999.0,  999.0,  999.0,  999.0,  999.0,  999.0,  999.0,  999.0,  999.0,  999.0,  999.0,  999.0,  999.0,  999.0,  999.0,  999.0,  999.0,  999.0,  999.0,  999.0,  999.0,  999.0,  999.0,  999.0,  999.0,  999.0,  999.0
2000/10/09 09:10,   -0.3,   -1.5,   -5.8,   -7.7,   -5.5,   -0.9,    4.2,    7.1,    7.9,    9.9,  999.0,   12.3,   11.8,   12.7,   13.9,  999.0,  999.0,  999.0,  999.0,  999.0,   14.7,  999.0,  999.0,  999.0,  999.0,  999.0,  999.0,  999.0,  999.0,  999.0,  999.0,  999.0,  999.0,  999.0,  999.0,  999.0,  999.0,  999.0,  999.0,  999.0,  999.0,  999.0,  999.0,  999.0,  999.0,  999.0,  999.0,  999.0,  999.0,  999.0,  999.0,  999.0,  999.0,  999.0,  999.0,  999.0,  999.0,  999.0,  999.0,  999.0,  999.0,  999.0,  999.0
2000/10/09 09:20,   -0.0,   -1.2,   -6.5,   -7.8,   -4.9,   -0.1,    4.4,    6.5,    8.2,    7.0,  999.0,   10.4,   11.0,   12.3,   13.1,   13.6,   14.4,  999.0,  999.0,  999.0,  999.0,   13.8,  999.0,  999.0,  999.0,  999.0,  999.0,  999.0,  999.0,  999.0,  999.0,  999.0,  999.0,  999.0,  999.0,  999.0,  999.0,  999.0,  999.0,  999.0,  999.0,  999.0,  999.0,  999.0,  999.0,  999.0,  999.0,  999.0,  999.0,  999.0,  999.0,  999.0,  999.0,  999.0,  999.0,  999.0,  999.0,  999.0,  999.0,  999.0,  999.0,  999.0,  999.0
2000/10/09 09:30,    0.0,   -2.3,   -4.8,   -7.1,   -5.7,   -3.4,    2.1,    5.8,    8.4,   10.4,   11.7,   12.1,   12.7,   13.2,   13.6,   13.8,   14.3,  999.0,  999.0,  999.0,  999.0,  999.0,   14.8,  999.0,  999.0,  999.0,  999.0,  999.0,  999.0,  999.0,  999.0,  999.0,  999.0,  999.0,  999.0,  999.0,  999.0,  999.0,  999.0,  999.0,  999.0,  999.0,  999.0,  999.0,  999.0,  999.0,  999.0,  999.0,  999.0,  999.0,  999.0,  999.0,  999.0,  999.0,  999.0,  999.0,  999.0,  999.0,  999.0,  999.0,  999.0,  999.0,  999.0
2000/10/09 09:40,   -0.9,   -2.3,   -5.1,   -8.1,   -6.2,   -1.9,    3.6,    6.9,    7.8,    8.4,   10.9,   10.0,    9.5,    7.2,    9.2,   12.7,   11.6,  999.0,  999.0,  999.0,   13.6,  999.0,   15.0,  999.0,  999.0,  999.0,  999.0,  999.0,  999.0,  999.0,  999.0,  999.0,  999.0,  999.0,  999.0,  999.0,  999.0,  999.0,  999.0,  999.0,  999.0,  999.0,  999.0,  999.0,  999.0,  999.0,  999.0,  999.0,  999.0,  999.0,  999.0,  999.0,  999.0,  999.0,  999.0,  999.0,  999.0,  999.0,  999.0,  999.0,  999.0,  999.0,  999.0
2000/10/09 09:50,   -0.5,   -3.3,   -5.1,   -7.1,   -3.8,    0.0,    3.6,    7.5,    9.0,   10.6,   11.3,   11.0,   10.4,   11.6,    9.6,   10.4,    9.5,  999.0,  999.0,   12.7,  999.0,  999.0,  999.0,  999.0,  999.0,  999.0,  999.0,  999.0,  999.0,  999.0,  999.0,  999.0,  999.0,  999.0,  999.0,  999.0,  999.0,  999.0,  999.0,  999.0,  999.0,  999.0,  999.0,  999.0,  999.0,  999.0,  999.0,  999.0,  999.0,  999.0,  999.0,  999.0,  999.0,  999.0,  999.0,  999.0,  999.0,  999.0,  999.0,  999.0,  999.0,  999.0,  999.0
2000/10/09 10:00,   -0.9,   -1.9,  999.0,   -5.4,   -1.9,    3.1,    6.2,    7.5,    8.7,   10.1,   10.6,   11.1,   11.7,   10.7,  999.0,   12.0,   14.6,  999.0,  999.0,   13.2,  999.0,  999.0,  999.0,  999.0,  999.0,  999.0,  999.0,  999.0,   18.4,   19.7,  999.0,  999.0,  999.0,  999.0,  999.0,  999.0,  999.0,  999.0,  999.0,  999.0,  999.0,  999.0,  999.0,  999.0,  999.0,  999.0,  999.0,  999.0,  999.0,  999.0,  999.0,  999.0,  999.0,  999.0,  999.0,  999.0,  999.0,  999.0,  999.0,  999.0,  999.0,  999.0,  999.0
2000/10/09 10:10,   -0.5,   -0.6,   -3.0,   -6.2,   -4.0,    0.0,    4.8,    7.6,    7.9,    9.6,   10.0,   10.5,   11.3,   12.1,   11.6,   13.1,   13.5,   15.0,   16.1,  999.0,  999.0,  999.0,  999.0,  999.0,  999.0,  999.0,   16.6,   17.6,  999.0,  999.0,  999.0,  999.0,  999.0,  999.0,  999.0,  999.0,  999.0,  999.0,  999.0,  999.0,  999.0,  999.0,  999.0,  999.0,  999.0,  999.0,  999.0,  999.0,  999.0,  999.0,  999.0,  999.0,  999.0,  999.0,  999.0,  999.0,  999.0,  999.0,  999.0,  999.0,  999.0,  999.0,  999.0
2000/10/09 10:20,   -0.4,   -3.9,   -5.3,   -6.4,   -3.9,   -0.9,    3.6,    5.7,    9.2,    7.8,    9.2,   10.4,   10.3,   10.5,   11.7,  999.0,   13.3,  999.0,   13.7,   14.6,   14.5,  999.0,  999.0,  999.0,  999.0,  999.0,  999.0,  999.0,  999.0,  999.0,  999.0,  999.0,  999.0,  999.0,  999.0,  999.0,  999.0,  999.0,  999.0,  999.0,  999.0,  999.0,  999.0,  999.0,  999.0,  999.0,  999.0,  999.0,  999.0,  999.0,  999.0,  999.0,  999.0,  999.0,  999.0,  999.0,  999.0,  999.0,  999.0,  999.0,  999.0,  999.0,  999.0
2000/10/09 10:30,   -1.1,   -6.1,   -7.3,   -6.2,   -3.1,   -0.7,    4.1,    6.9,    7.4,    9.0,    9.9,    9.8,   10.3,   11.3,   12.2,   12.3,   13.6,   13.0,  999.0,  999.0,   13.0,   14.7,   13.9,  999.0,  999.0,  999.0,  999.0,  999.0,  999.0,  999.0,  999.0,  999.0,  999.0,  999.0,  999.0,  999.0,  999.0,  999.0,  999.0,  999.0,  999.0,  999.0,  999.0,  999.0,  999.0,  999.0,  999.0,  999.0,  999.0,  999.0,  999.0,  999.0,  999.0,  999.0,  999.0,  999.0,  999.0,  999.0,  999.0,  999.0,  999.0,  999.0,  999.0
2000/10/09 10:40,   -0.7,   -4.6,   -4.7,   -6.1,   -3.2,    0.3,    4.2,    6.1,    8.0,    8.9,    8.4,   10.4,    8.7,    9.7,   10.8,   12.3,   13.1,   14.0,   15.5,   14.0,  999.0,   13.3,   14.1,   16.6,  999.0,  999.0,  999.0,  999.0,  999.0,  999.0,  999.0,  999.0,  999.0,  999.0,  999.0,  999.0,  999.0,  999.0,  999.0,  999.0,  999.0,  999.0,  999.0,  999.0,  999.0,  999.0,  999.0,  999.0,  999.0,  999.0,  999.0,  999.0,  999.0,  999.0,  999.0,  999.0,  999.0,  999.0,  999.0,  999.0,  999.0,  999.0,  999.0
2000/10/09 10:50,   -1.8,   -2.6,   -3.5,   -3.7,   -2.0,    0.7,    2.6,    5.8,    8.0,    8.0,    8.1,    9.7,   10.7,   11.5,   11.7,   12.6,   12.8,   13.9,   13.8,   12.9,   12.0,   12.8,   13.0,  999.0,  999.0,  999.0,  999.0,  999.0,  999.0,  999.0,  999.0,  999.0,  999.0,  999.0,  999.0,  999.0,  999.0,  999.0,  999.0,  999.0,  999.0,  999.0,  999.0,  999.0,  999.0,  999.0,  999.0,  999.0,  999.0,  999.0,  999.0,  999.0,  999.0,  999.0,  999.0,  999.0,  999.0,  999.0,  999.0,  999.0,  999.0,  999.0,  999.0
2000/10/09 11:00,   -0.5,   -3.1,   -3.8,   -6.4,   -3.5,    1.4,    5.2,    7.8,    7.7,    8.1,    8.6,   10.5,   10.0,   12.1,   13.0,   13.9,   13.3,   12.6,   15.4,   13.8,   13.8,   15.5,  999.0,  999.0,  999.0,  999.0,  999.0,  999.0,  999.0,  999.0,  999.0,  999.0,  999.0,  999.0,  999.0,  999.0,  999.0,  999.0,  999.0,  999.0,  999.0,  999.0,  999.0,  999.0,  999.0,  999.0,  999.0,  999.0,  999.0,  999.0,  999.0,  999.0,  999.0,  999.0,  999.0,  999.0,  999.0,  999.0,  999.0,  999.0,  999.0,  999.0,  999.0
2000/10/09 11:10,   -1.5,   -4.9,   -5.5,   -5.0,   -1.8,    2.4,    4.6,    6.2,    6.8,    7.6,    8.0,    9.3,   10.1,   12.0,   10.9,  999.0,   11.1,   12.6,   14.8,   11.8,   11.2,  999.0,  999.0,  999.0,  999.0,  999.0,  999.0,  999.0,  999.0,  999.0,  999.0,  999.0,  999.0,  999.0,  999.0,  999.0,  999.0,  999.0,  999.0,  999.0,  999.0,  999.0,  999.0,  999.0,  999.0,  999.0,  999.0,  999.0,  999.0,  999.0,  999.0,  999.0,  999.0,  999.0,  999.0,  999.0,  999.0,  999.0,  999.0,  999.0,  999.0,  999.0,  999.0
2000/10/09 11:20,   -3.4,   -5.8,   -6.9,   -5.9,   -2.3,    0.2,    3.0,    4.3,    6.1,    7.6,    8.7,   10.4,   11.1,  999.0,   11.3,   11.3,   11.5,   12.7,   14.8,   13.9,   11.4,   11.7,  999.0,  999.0,  999.0,  999.0,  999.0,  999.0,  999.0,  999.0,  999.0,  999.0,  999.0,  999.0,  999.0,  999.0,  999.0,  999.0,  999.0,  999.0,  999.0,  999.0,  999.0,  999.0,  999.0,  999.0,  999.0,  999.0,  999.0,  999.0,  999.0,  999.0,  999.0,  999.0,  999.0,  999.0,  999.0,  999.0,  999.0,  999.0,  999.0,  999.0,  999.0
2000/10/09 11:30,   -2.4,   -5.5,   -6.6,   -7.3,  999.0,   -0.3,    2.0,    3.8,    6.0,    7.0,    8.3,   10.3,   10.3,   11.9,   12.6,   12.9,   12.6,   12.6,   12.9,   12.3,   11.2,   12.7,   15.7,  999.0,  999.0,  999.0,  999.0,  999.0,  999.0,  999.0,  999.0,  999.0,  999.0,  999.0,  999.0,  999.0,  999.0,  999.0,  999.0,  999.0,  999.0,  999.0,  999.0,  999.0,  999.0,  999.0,  999.0,  999.0,  999.0,  999.0,  999.0,  999.0,  999.0,  999.0,  999.0,  999.0,  999.0,  999.0,  999.0,  999.0,  999.0,  999.0,  999.0
2000/10/09 11:40,  999.0,  999.0,   -6.8,   -7.7,   -5.0,   -1.4,    2.3,    3.6,    5.7,    5.7,    7.2,    9.4,   10.0,   10.3,   11.6,   12.2,   12.7,   12.9,   13.6,   12.2,   13.1,   15.5,   15.0,  999.0,  999.0,  999.0,  999.0,  999.0,  999.0,  999.0,  999.0,  999.0,  999.0,  999.0,  999.0,  999.0,  999.0,  999.0,  999.0,  999.0,  999.0,  999.0,  999.0,  999.0,  999.0,  999.0,  999.0,  999.0,  999.0,  999.0,  999.0,  999.0,  999.0,  999.0,  999.0,  999.0,  999.0,  999.0,  999.0,  999.0,  999.0,  999.0,  999.0
2000/10/09 11:50,  999.0,   -5.8,   -6.1,   -6.3,   -5.5,   -2.0,    1.2,    2.2,  999.0,    5.9,    7.9,    9.8,   10.4,   10.7,    9.8,   10.0,   10.6,   11.5,   12.8,   13.9,   16.5,   17.4,   18.8,   20.0,  999.0,  999.0,  999.0,  999.0,  999.0,  999.0,  999.0,  999.0,  999.0,  999.0,  999.0,  999.0,  999.0,  999.0,  999.0,  999.0,  999.0,  999.0,  999.0,  999.0,  999.0,  999.0,  999.0,  999.0,  999.0,  999.0,  999.0,  999.0,  999.0,  999.0,  999.0,  999.0,  999.0,  999.0,  999.0,  999.0,  999.0,  999.0,  999.0
2000/10/09 12:00,   -3.5,   -2.8,   -4.6,   -7.8,   -6.7,   -4.0,   -0.2,    2.2,    4.3,    7.0,    8.9,   10.1,   10.4,    9.5,   10.5,    8.1,    9.7,    9.4,   10.6,   11.9,   13.4,   15.4,   15.8,   16.7,  999.0,  999.0,  999.0,  999.0,  999.0,  999.0,  999.0,  999.0,  999.0,  999.0,  999.0,  999.0,  999.0,  999.0,  999.0,  999.0,  999.0,  999.0,  999.0,  999.0,  999.0,  999.0,  999.0,  999.0,  999.0,  999.0,  999.0,  999.0,  999.0,  999.0,  999.0,  999.0,  999.0,  999.0,  999.0,  999.0,  999.0,  999.0,  999.0
2000/10/09 12:10,   -3.2,   -4.2,   -6.6,   -6.8,   -4.7,   -1.3,    1.0,    2.5,    5.1,    6.8,  999.0,    9.6,   10.5,   10.3,   10.7,   10.7,   10.8,   10.9,   12.4,   12.3,   13.4,   13.8,   15.1,   15.1,   16.2,   17.1,   16.6,  999.0,  999.0,  999.0,  999.0,  999.0,  999.0,  999.0,  999.0,  999.0,  999.0,  999.0,  999.0,  999.0,  999.0,  999.0,  999.0,  999.0,  999.0,  999.0,  999.0,  999.0,  999.0,  999.0,  999.0,  999.0,  999.0,  999.0,  999.0,  999.0,  999.0,  999.0,  999.0,  999.0,  999.0,  999.0,  999.0
2000/10/09 12:20,   -1.1,   -4.8,   -5.7,   -6.2,   -4.4,   -1.7,   -0.0,    3.0,    6.5,    8.3,    9.5,    9.9,   11.0,   10.1,    9.8,   10.0,   10.2,   11.4,   11.9,   13.5,   13.2,   13.6,   13.3,  999.0,   15.3,   16.3,   16.2,   17.2,  999.0,  999.0,  999.0,  999.0,  999.0,  999.0,  999.0,  999.0,  999.0,  999.0,  999.0,  999.0,  999.0,  999.0,  999.0,  999.0,  999.0,  999.0,  999.0,  999.0,  999.0,  999.0,  999.0,  999.0,  999.0,  999.0,  999.0,  999.0,  999.0,  999.0,  999.0,  999.0,  999.0,  999.0,  999.0
2000/10/09 12:30,   -2.4,   -3.7,   -3.6,   -5.8,   -5.1,   -1.9,    0.2,    2.8,    5.3,    6.9,    8.2,    8.9,    9.0,    8.4,    9.4,    9.1,    9.2,    9.7,   10.2,   11.7,   12.8,   14.0,   14.9,   15.4,   14.1,   14.6,   15.5,   17.1,  999.0,  999.0,  999.0,  999.0,  999.0,  999.0,  999.0,  999.0,  999.0,  999.0,  999.0,  999.0,  999.0,  999.0,  999.0,  999.0,  999.0,  999.0,  999.0,  999.0,  999.0,  999.0,  999.0,  999.0,  999.0,  999.0,  999.0,  999.0,  999.0,  999.0,  999.0,  999.0,  999.0,  999.0,  999.0
2000/10/09 12:40,  999.0,   -6.3,   -8.3,   -6.0,   -5.5,   -2.8,   -0.3,  999.0,    3.9,    4.6,    6.7,    7.8,    8.8,    9.5,    9.9,    9.6,    9.7,   10.2,   10.5,   11.9,   14.1,   13.7,   13.1,   13.4,   12.9,   12.9,   14.7,   15.9,  999.0,  999.0,  999.0,  999.0,  999.0,  999.0,  999.0,  999.0,  999.0,  999.0,  999.0,  999.0,  999.0,  999.0,  999.0,  999.0,  999.0,  999.0,  999.0,  999.0,  999.0,  999.0,  999.0,  999.0,  999.0,  999.0,  999.0,  999.0,  999.0,  999.0,  999.0,  999.0,  999.0,  999.0,  999.0
2000/10/09 12:50,   -0.5,   -6.2,   -6.7,   -5.0,   -4.6,   -3.1,   -0.2,    2.1,    3.8,    4.9,    6.4,    7.1,    8.9,    9.3,   10.1,    9.8,    9.6,   10.0,   10.2,  999.0,   11.2,   11.5,   11.2,   12.6,   11.2,   11.6,   12.8,   15.3,   16.0,  999.0,  999.0,  999.0,  999.0,  999.0,  999.0,  999.0,  999.0,  999.0,  999.0,  999.0,  999.0,  999.0,  999.0,  999.0,  999.0,  999.0,  999.0,  999.0,  999.0,  999.0,  999.0,  999.0,  999.0,  999.0,  999.0,  999.0,  999.0,  999.0,  999.0,  999.0,  999.0,  999.0,  999.0
2000/10/09 13:00,  999.0,   -4.2,   -5.8,   -6.2,   -4.8,   -2.9,   -0.2,    2.3,    3.7,    5.6,    7.0,    8.2,    8.3,    9.3,    9.2,    8.2,    9.1,    9.5,    8.9,    9.9,   11.6,   12.8,   13.7,   13.8,   15.0,   15.6,   14.8,   15.0,  999.0,  999.0,  999.0,  999.0,  999.0,  999.0,  999.0,  999.0,  999.0,  999.0,  999.0,  999.0,  999.0,  999.0,  999.0,  999.0,  999.0,  999.0,  999.0,  999.0,  999.0,  999.0,  999.0,  999.0,  999.0,  999.0,  999.0,  999.0,  999.0,  999.0,  999.0,  999.0,  999.0,  999.0,  999.0
2000/10/09 13:10,  999.0,   -5.2,   -6.8,   -6.2,   -4.8,   -1.6,    0.9,    3.0,    4.8,    6.7,    7.8,    7.9,    8.3,    8.7,    8.7,    8.2,    8.0,    8.1,    9.2,   10.7,   11.8,   12.3,   13.5,   13.5,   14.1,   15.2,  999.0,  999.0,  999.0,  999.0,  999.0,  999.0,  999.0,  999.0,  999.0,  999.0,  999.0,  999.0,  999.0,  999.0,  999.0,  999.0,  999.0,  999.0,  999.0,  999.0,  999.0,  999.0,  999.0,  999.0,  999.0,  999.0,  999.0,  999.0,  999.0,  999.0,  999.0,  999.0,  999.0,  999.0,  999.0,  999.0,  999.0
2000/10/09 13:20,   -3.0,   -5.3,   -5.9,   -6.3,   -4.8,   -2.6,   -0.6,    1.5,    4.2,    4.5,    6.7,    7.5,    7.7,    8.1,    8.8,    9.5,    9.3,    9.2,    9.5,   10.5,   12.0,   11.6,   11.3,   11.1,   11.1,   12.6,  999.0,  999.0,  999.0,  999.0,  999.0,  999.0,  999.0,  999.0,  999.0,  999.0,  999.0,  999.0,  999.0,  999.0,  999.0,  999.0,  999.0,  999.0,  999.0,  999.0,  999.0,  999.0,  999.0,  999.0,  999.0,  999.0,  999.0,  999.0,  999.0,  999.0,  999.0,  999.0,  999.0,  999.0,  999.0,  999.0,  999.0
2000/10/09 13:30,  999.0,   -3.6,   -5.1,   -6.1,   -5.2,   -3.3,   -1.4,    0.8,    2.8,    5.3,    7.3,    8.1,    8.0,  999.0,    8.1,    7.7,    8.5,  999.0,    9.9,    9.6,   12.0,  999.0,    9.7,   10.5,   11.7,  999.0,  999.0,  999.0,  999.0,  999.0,  999.0,  999.0,  999.0,  999.0,  999.0,  999.0,  999.0,  999.0,  999.0,  999.0,  999.0,  999.0,  999.0,  999.0,  999.0,  999.0,  999.0,  999.0,  999.0,  999.0,  999.0,  999.0,  999.0,  999.0,  999.0,  999.0,  999.0,  999.0,  999.0,  999.0,  999.0,  999.0,  999.0
2000/10/09 13:40,   -2.1,   -4.4,   -4.4,   -4.9,   -4.2,   -2.6,   -1.5,   -0.2,    1.8,    4.1,    5.8,    7.2,    8.3,    9.4,    9.4,    8.6,    7.8,    8.2,    9.4,   10.5,  999.0,  999.0,    9.2,    9.6,    9.9,   11.1,  999.0,  999.0,  999.0,  999.0,  999.0,  999.0,  999.0,  999.0,  999.0,  999.0,  999.0,  999.0,  999.0,  999.0,  999.0,  999.0,  999.0,  999.0,  999.0,  999.0,  999.0,  999.0,  999.0,  999.0,  999.0,  999.0,  999.0,  999.0,  999.0,  999.0,  999.0,  999.0,  999.0,  999.0,  999.0,  999.0,  999.0
2000/10/09 13:50,   -1.1,   -2.7,   -4.5,   -4.8,   -4.5,   -2.8,   -1.5,    0.2,    2.2,  999.0,    6.8,  999.0,  999.0,    9.9,    9.5,    8.2,    7.7,    8.9,  999.0,  999.0,    9.5,    9.1,  999.0,  999.0,   11.1,   10.7,  999.0,  999.0,  999.0,  999.0,  999.0,  999.0,  999.0,  999.0,  999.0,  999.0,  999.0,  999.0,  999.0,  999.0,  999.0,  999.0,  999.0,  999.0,  999.0,  999.0,  999.0,  999.0,  999.0,  999.0,  999.0,  999.0,  999.0,  999.0,  999.0,  999.0,  999.0,  999.0,  999.0,  999.0,  999.0,  999.0,  999.0
2000/10/09 14:00,  999.0,   -3.8,   -6.0,   -7.3,   -4.6,   -3.2,   -2.2,    0.5,    2.6,    4.6,    6.7,    7.5,    9.1,    8.9,    8.6,    9.2,    9.0,    9.3,   10.4,   11.1,   12.0,   10.1,  999.0,    9.9,   10.4,   10.5,  999.0,  999.0,  999.0,  999.0,  999.0,  999.0,  999.0,  999.0,  999.0,  999.0,  999.0,  999.0,  999.0,  999.0,  999.0,  999.0,  999.0,  999.0,  999.0,  999.0,  999.0,  999.0,  999.0,  999.0,  999.0,  999.0,  999.0,  999.0,  999.0,  999.0,  999.0,  999.0,  999.0,  999.0,  999.0,  999.0,  999.0
2000/10/09 14:10,  999.0,  999.0,   -5.7,   -7.9,   -5.3,   -3.5,   -2.2,    1.1,    3.1,    4.9,    6.7,    7.4,    8.1,    9.0,    9.8,    9.1,    8.8,    8.9,   11.1,   12.1,   12.4,   12.0,   11.8,   11.2,   10.3,   10.9,   12.6,  999.0,  999.0,  999.0,  999.0,  999.0,  999.0,  999.0,  999.0,  999.0,  999.0,  999.0,  999.0,  999.0,  999.0,  999.0,  999.0,  999.0,  999.0,  999.0,  999.0,  999.0,  999.0,  999.0,  999.0,  999.0,  999.0,  999.0,  999.0,  999.0,  999.0,  999.0,  999.0,  999.0,  999.0,  999.0,  999.0
2000/10/09 14:20,  999.0,   -0.1,   -6.2,   -8.8,   -8.2,   -6.5,   -4.8,   -2.4,    1.5,    3.8,    5.2,    6.1,    6.9,    7.7,    8.8,  999.0,    8.5,    9.3,  999.0,   12.0,   11.5,  999.0,    9.8,  999.0,   10.5,   10.0,   11.5,  999.0,  999.0,  999.0,  999.0,  999.0,  999.0,  999.0,  999.0,  999.0,  999.0,  999.0,  999.0,  999.0,  999.0,  999.0,  999.0,  999.0,  999.0,  999.0,  999.0,  999.0,  999.0,  999.0,  999.0,  999.0,  999.0,  999.0,  999.0,  999.0,  999.0,  999.0,  999.0,  999.0,  999.0,  999.0,  999.0
2000/10/09 14:30,   -0.1,  999.0,   -7.5,   -8.7,   -7.3,   -6.6,   -4.0,   -0.7,    2.3,    4.3,    5.7,    6.4,    7.3,    6.8,    7.3,    7.5,    7.0,    9.4,    9.3,    9.6,   10.2,   10.2,   10.2,    8.6,    7.1,    7.5,    8.7,    8.7,    8.3,    8.2,  999.0,  999.0,  999.0,  999.0,  999.0,  999.0,  999.0,  999.0,  999.0,  999.0,  999.0,  999.0,  999.0,  999.0,  999.0,  999.0,  999.0,  999.0,  999.0,  999.0,  999.0,  999.0,  999.0,  999.0,  999.0,  999.0,  999.0,  999.0,  999.0,  999.0,  999.0,  999.0,  999.0
2000/10/09 14:40,  999.0,  999.0,   -8.1,   -8.3,   -6.8,   -5.5,   -2.5,    0.3,    2.2,    4.1,    5.9,    6.9,    6.8,    7.4,    7.2,    8.6,    6.4,    7.8,    7.5,    8.0,    8.4,    8.1,    7.7,    6.8,    6.4,    7.9,   10.2,   11.2,   12.2,   11.0,   10.7,    9.5,    9.0,    8.8,   10.2,  999.0,  999.0,  999.0,  999.0,  999.0,  999.0,  999.0,  999.0,  999.0,  999.0,  999.0,  999.0,  999.0,  999.0,  999.0,  999.0,  999.0,  999.0,  999.0,  999.0,  999.0,  999.0,  999.0,  999.0,  999.0,  999.0,  999.0,  999.0
2000/10/09 14:50,    0.2,   -4.0,   -7.3,   -7.4,   -6.1,   -4.1,  999.0,    0.5,    2.7,  999.0,    6.7,  999.0,    7.5,    8.3,    7.7,    6.9,    7.0,    7.0,    7.1,    6.4,    7.0,    6.1,    6.0,    7.3,    8.4,    8.7,    9.2,    9.8,   10.1,   11.1,   11.1,  999.0,  999.0,    8.7,    7.9,    6.0,    7.2,    7.2,    6.6,    7.6,    7.3,  999.0,  999.0,  999.0,  999.0,  999.0,  999.0,  999.0,  999.0,  999.0,  999.0,  999.0,  999.0,  999.0,  999.0,  999.0,  999.0,  999.0,  999.0,  999.0,  999.0,  999.0,  999.0
2000/10/09 15:00,   -0.0,   -1.6,   -4.8,   -6.9,   -5.1,   -4.5,  999.0,  999.0,  999.0,    3.4,  999.0,    6.6,    7.5,    7.6,    7.2,    6.8,  999.0,    4.8,    6.3,    6.3,    6.6,    6.2,    7.3,    8.4,    7.7,    7.5,    8.9,    9.3,  999.0,  999.0,  999.0,  999.0,  999.0,  999.0,  999.0,  999.0,  999.0,    6.7,  999.0,    7.3,    8.4,   10.1,  999.0,  999.0,  999.0,  999.0,  999.0,  999.0,  999.0,  999.0,  999.0,  999.0,  999.0,  999.0,  999.0,  999.0,  999.0,  999.0,  999.0,  999.0,  999.0,  999.0,  999.0
2000/10/09 15:10,   -0.0,   -1.8,   -4.6,   -5.7,   -4.5,   -3.6,   -1.6,    2.3,    3.8,    4.0,    5.0,    6.5,    6.7,    5.7,    5.3,    8.0,    6.7,    6.9,    6.2,    7.1,  999.0,  999.0,    6.7,  999.0,    7.2,    7.6,    8.2,    7.6,    7.1,  999.0,    9.2,  999.0,  999.0,  999.0,  999.0,  999.0,  999.0,  999.0,  999.0,  999.0,  999.0,  999.0,  999.0,  999.0,  999.0,  999.0,  999.0,  999.0,  999.0,  999.0,  999.0,  999.0,  999.0,  999.0,  999.0,  999.0,  999.0,  999.0,  999.0,  999.0,  999.0,  999.0,  999.0
2000/10/09 15:20,  999.0,   -4.8,   -6.3,   -7.0,   -5.6,   -3.1,   -0.4,    2.0,    3.5,    5.0,    6.0,    6.2,    8.5,    7.6,    5.9,    7.1,    6.2,    7.6,    6.2,    7.3,    8.4,   10.1,  999.0,    7.9,    8.4,    8.7,    8.2,    8.7,  999.0,  999.0,  999.0,  999.0,  999.0,  999.0,  999.0,  999.0,  999.0,  999.0,  999.0,  999.0,  999.0,  999.0,  999.0,  999.0,  999.0,  999.0,  999.0,  999.0,  999.0,  999.0,  999.0,  999.0,  999.0,  999.0,  999.0,  999.0,  999.0,  999.0,  999.0,  999.0,  999.0,  999.0,  999.0
2000/10/09 15:30,   -1.3,   -6.4,   -7.6,   -6.5,   -3.9,   -2.5,   -0.4,    2.9,    4.7,    6.3,    7.7,    6.6,    5.9,    5.6,    7.1,    7.5,    7.8,    7.8,    7.8,  999.0,    8.0,    7.7,    7.7,    7.6,    8.5,    5.7,  999.0,    6.7,  999.0,  999.0,  999.0,  999.0,  999.0,  999.0,  999.0,  999.0,  999.0,  999.0,  999.0,  999.0,  999.0,  999.0,  999.0,  999.0,  999.0,  999.0,  999.0,  999.0,  999.0,  999.0,  999.0,  999.0,  999.0,  999.0,  999.0,  999.0,  999.0,  999.0,  999.0,  999.0,  999.0,  999.0,  999.0
2000/10/09 15:40,   -1.6,   -5.1,   -6.5,   -6.1,   -4.8,   -2.0,    1.0,    2.8,    4.2,    6.2,    6.7,  999.0,  999.0,    6.0,    6.4,    4.6,    7.1,    7.9,    8.5,    7.9,    8.0,    9.0,    8.5,    8.7,    7.1,    5.6,    5.9,    6.9,    7.7,    7.9,  999.0,  999.0,  999.0,  999.0,  999.0,  999.0,  999.0,  999.0,  999.0,  999.0,  999.0,  999.0,  999.0,  999.0,  999.0,  999.0,  999.0,  999.0,    6.4,  999.0,  999.0,  999.0,  999.0,  999.0,  999.0,  999.0,    9.0,  999.0,    9.2,  999.0,  999.0,  999.0,  999.0
2000/10/09 15:50,  999.0,   -4.0,   -6.7,   -6.7,   -5.9,   -4.0,   -0.9,    1.7,    4.0,    5.6,    6.0,    7.6,  999.0,  999.0,    5.6,    3.9,    4.9,    6.1,    7.8,    8.0,    8.1,    8.2,    7.1,    8.8,   10.3,    9.5,    9.6,    9.2,    7.7,  999.0,  999.0,  999.0,  999.0,  999.0,  999.0,  999.0,  999.0,  999.0,  999.0,  999.0,  999.0,  999.0,  999.0,  999.0,  999.0,  999.0,    7.0,    6.5,    6.6,  999.0,    5.5,    8.5,    9.3,   10.1,   11.0,   12.1,   11.9,  999.0,   11.5,  999.0,  999.0,  999.0,  999.0
2000/10/09 16:00,  999.0,   -2.9,   -6.0,   -6.6,   -5.3,   -3.5,   -1.1,    2.2,    3.2,    4.5,    5.9,    4.9,    5.6,    5.3,    5.9,    7.2,    5.6,    6.6,    7.9,    7.8,    9.0,    9.0,    9.0,    7.9,    7.9,    7.8,    7.9,    7.3,    6.5,    5.0,  999.0,  999.0,  999.0,  999.0,  999.0,  999.0,  999.0,  999.0,  999.0,  999.0,  999.0,  999.0,  999.0,    7.6,  999.0,    4.8,    4.9,    5.5,    5.4,  999.0,    9.3,   10.1,   12.0,   12.1,   12.1,  999.0,   10.6,   12.2,   11.6,  999.0,   12.2,  999.0,  999.0
2000/10/09 16:10,  999.0,   -3.0,   -4.6,   -6.1,   -5.5,   -0.8,    0.2,  999.0,  999.0,    4.1,    4.8,    5.2,    5.9,    6.3,    6.3,    6.6,    6.7,    6.9,    8.3,    7.9,    7.8,    7.6,    8.4,    7.6,    7.4,    7.4,    7.8,    7.1,    5.9,    6.2,    7.1,    6.1,  999.0,    4.8,  999.0,  999.0,  999.0,  999.0,  999.0,  999.0,  999.0,    3.9,    4.3,    3.8,    4.2,    5.9,    6.9,    7.7,    9.6,   10.6,   11.4,   12.2,   12.6,   12.2,   12.8,   12.6,   13.1,   11.1,   11.9,   12.3,   13.2,  999.0,  999.0
2000/10/09 16:20,   -6.1,   -5.6,   -7.5,   -8.0,    3.4,   -3.3,   -1.7,    1.6,    3.2,    4.2,    5.2,    4.5,    3.9,    4.0,    2.6,    5.1,    4.2,    4.7,    4.9,    5.4,    5.0,    5.9,    7.2,    7.9,    9.2,   10.9,   10.2,   12.7,   10.9,    8.5,    8.1,    7.4,    6.7,    6.8,    8.2,    7.3,    3.0,    2.0,    2.8,    3.5,    3.7,    4.2,    4.2,    3.5,    6.4,    8.8,   11.3,   11.5,   12.4,   12.0,   11.7,   12.0,   11.9,  999.0,   11.7,   11.5,   11.6,   11.3,  999.0,  999.0,  999.0,  999.0,  999.0
2000/10/09 16:30,  999.0,   -8.8,   -6.3,  999.0,   -4.4,   -4.1,    0.1,   -1.1,    2.8,    2.7,    5.1,    3.9,    2.8,    1.8,    4.5,    4.3,    3.5,    4.3,    6.0,    5.6,    5.5,    5.8,  999.0,    6.1,    7.9,    8.4,    8.0,    8.3,    9.1,    8.7,    9.6,   11.7,   14.1,   11.0,    5.5,    2.7,    2.5,    1.3,    1.1,    2.5,    3.4,    4.7,    5.1,    6.5,    7.4,    9.9,   10.6,   11.1,   10.3,   10.6,   11.0,   11.2,   11.9,  999.0,   12.0,  999.0,  999.0,  999.0,  999.0,  999.0,  999.0,  999.0,  999.0
2000/10/09 16:40,  999.0,   -7.9,   -7.7,   -6.8,   -3.4,  999.0,   -3.4,   -2.6,   -3.7,   -1.3,    3.0,    1.4,    1.8,    4.3,    3.3,    0.2,    3.3,    1.0,    2.2,    3.9,    3.1,    2.2,    3.4,    5.2,    7.0,    7.0,    8.6,    4.6,    4.8,    2.9,   -1.0,   -2.6,    1.8,    1.1,    0.7,    1.4,    2.9,    3.9,    4.7,    3.8,    3.9,    4.7,    6.1,    5.4,    7.5,   10.2,    9.2,    9.4,    9.5,    9.8,    9.8,   12.0,   13.0,   13.2,   12.2,   11.8,   12.4,   13.2,  999.0,  999.0,  999.0,  999.0,  999.0
2000/10/09 16:50,   -4.6,   -7.2,   -7.1,   -4.6,   -7.5,   -5.9,   -5.0,   -2.9,   -2.2,  999.0,    3.6,    1.9,    2.0,    4.2,    2.4,    1.3,   -0.2,    3.4,    2.7,    3.3,    3.5,    5.5,    5.8,    8.7,    8.1,    8.7,    9.1,    8.6,    6.7,    4.7,    3.8,    4.6,  999.0,  999.0,  999.0,    2.3,    3.1,    2.8,    3.0,    3.7,    3.6,    4.3,    4.9,    6.6,    8.4,   10.5,   10.8,    9.9,    8.6,    9.2,   11.4,   13.3,   13.4,   13.5,   12.4,   12.7,  999.0,   13.1,  999.0,  999.0,  999.0,  999.0,  999.0
2000/10/09 17:00,  999.0,   -6.1,   -8.8,   -6.1,   -6.3,   -0.7,   -4.3,    3.3,  999.0,   11.5,  999.0,    5.8,    6.0,    3.1,    4.3,    2.6,    3.4,    1.7,    2.6,    5.8,    7.0,    7.1,    6.6,    6.8,    7.6,    6.8,    9.1,    8.5,    7.7,    6.9,    4.8,    4.5,    4.1,  999.0,  999.0,  999.0,    3.8,    2.1,   -0.0,    0.3,    1.6,    2.7,    2.7,    4.4,    6.8,    7.8,    8.1,    7.7,    6.9,    7.0,    8.6,    9.5,   10.7,   11.9,   11.5,  999.0,  999.0,  999.0,  999.0,  999.0,  999.0,  999.0,  999.0
2000/10/09 17:10,  999.0,   -4.2,   -3.3,   -2.3,   -7.6,   -4.3,   -5.7,   -2.0,   -0.3,    1.2,    3.4,  999.0,    4.4,    4.3,    2.0,    1.9,    1.3,    0.5,  999.0,    3.2,    1.8,    4.9,    5.4,    3.9,    3.8,    4.1,    6.8,    6.3,    3.2,    1.5,   -0.1,  999.0,  999.0,  999.0,  999.0,  999.0,  999.0,  999.0,    0.3,    2.5,    1.9,    1.9,    1.6,    2.9,    3.4,  999.0,    5.8,    6.3,    5.1,    5.6,    6.0,    6.6,  999.0,  999.0,  999.0,  999.0,  999.0,  999.0,  999.0,  999.0,  999.0,  999.0,  999.0
2000/10/09 17:20,   -4.1,   -4.3,   -2.6,   -7.0,   -4.5,   -3.8,   -3.0,   -1.7,   -0.6,    0.6,    1.9,    3.2,    4.2,    5.5,    2.9,    1.8,    0.7,   -3.0,    2.4,    6.9,    2.6,   11.2,    3.2,    9.5,   10.2,    9.6,   11.1,   10.3,    3.7,    0.8,    1.6,    0.2,   -2.7,   -2.7,   -0.8,  999.0,   -1.8,    0.5,    3.1,    4.8,    5.6,    4.4,    4.2,    4.1,    6.2,    6.8,    7.6,    7.7,    7.6,    7.0,  999.0,    6.4,  999.0,  999.0,    5.7,    6.0,    5.7,    8.1,    8.7,    8.8,    9.2,   10.5,  999.0
2000/10/09 17:30,    1.9,   -2.2,   -3.8,   -1.6,    1.1,    1.3,    1.1,    2.2,    2.7,    2.1,    2.7,    1.6,    3.5,    3.3,    1.4,    2.5,   -0.4,   -0.7,   -1.3,   -3.3,   -3.2,   -0.5,    1.1,    2.4,    3.2,    7.3,    5.2,    4.3,    3.6,    0.9,    0.2,    1.1,    0.8,    0.7,    2.5,    1.3,    5.4,    2.6,   -5.1,   -3.2,   -1.6,   -2.7,   -4.6,   -6.3,   -6.2,   -6.0,   -3.6,    0.4,    0.4,    2.4,    1.3,    1.9,    1.2,    1.3,    2.2,    4.5,    6.6,    7.2,    8.3,    8.6,    8.9,   10.1,   11.2
2000/10/09 17:40,   -3.5,   -4.1,   -2.8,   -2.7,   -1.0,    0.8,    2.9,    4.4,    5.4,    5.1,    6.7,    6.3,    6.3,    5.0,    3.6,    2.1,    2.3,    2.4,    2.0,    1.8,    2.0,    3.7,    6.4,    7.2,    8.6,    9.5,   11.2,   11.5,    9.9,    7.9,    6.5,    4.9,    5.4,    4.0,    7.2,    3.6,   -2.3,   -3.9,   -6.0,   -5.3,   -5.6,   -7.1,   -9.9,   -7.3,   -6.6,   -7.3,   -8.5,   -9.4,   -9.5,   -9.4,   -9.3,   -8.3,   -8.0,   -4.3,   -0.7,    2.3,    4.0,    5.1,    6.6,    7.7,  999.0,  999.0,  999.0
2000/10/09 17:50,   -2.9,   -2.7,   -1.9,    1.0,    2.2,    2.3,    3.1,    3.3,    3.3,    4.3,    3.3,    4.4,    2.5,    1.6,    1.3,    0.4,   -1.3,   -1.1,   -1.9,   -2.2,   -1.9,    0.2,    1.4,    1.7,    1.6,   -1.3,   -6.5,   -4.0,   -3.8,   -9.4,  -10.0,  -10.5,   -8.4,   -4.7,   -0.7,    2.4,    2.3,    2.4,    2.3,    3.8,    0.6,    0.1,   -1.4,    0.9,   -4.2,   -5.5,  999.0,   -0.9,   -1.2,    0.9,    1.7,    3.5,    3.8,    5.7,    6.3,    7.8,    7.4,    9.3,  999.0,  999.0,  999.0,  999.0,  999.0
2000/10/09 18:00,   -4.2,   -1.7,    0.1,    2.7,    3.5,    3.0,    2.8,    5.0,    5.3,    6.9,    6.4,    5.8,    4.7,    2.1,   -0.1,    0.1,    0.4,   -0.4,   -2.8,   -3.0,   -2.3,   -2.6,   -2.1,   -1.9,   -3.2,   -4.4,   -4.3,   -3.2,   -2.1,   -3.2,   -2.8,   -5.3,   -5.9,   -7.5,  -10.8,   -8.7,   -4.0,    1.5,    4.2,    3.5,    3.6,    3.3,    3.6,    1.2,    3.4,    2.1,    3.5,    4.9,    5.4,    6.5,    7.7,    7.3,    6.3,    8.2,  999.0,    9.6,  999.0,  999.0,  999.0,  999.0,  999.0,  999.0,  999.0
2000/10/09 18:10,  999.0,   -2.9,   -0.3,    2.1,    1.6,    3.0,    2.6,    6.1,    4.5,    7.8,    5.4,    2.5,    1.0,    3.8,  999.0,    0.5,  999.0,  999.0,  999.0,  999.0,  999.0,  999.0,  999.0,   -3.3,   -4.2,   -5.0,   -7.5,   -7.9,   -6.2,   -6.0,   -5.9,   -4.3,   -4.8,   -7.3,   -7.9,   -6.5,   -2.8,    1.1,    2.6,    2.7,    2.8,    2.9,    1.9,    1.4,    1.1,    0.9,    1.7,    2.9,    3.4,    3.7,    4.2,    4.4,  999.0,  999.0,  999.0,  999.0,  999.0,  999.0,  999.0,  999.0,  999.0,  999.0,  999.0
2000/10/09 18:20,  999.0,  999.0,   -0.8,   -0.8,    1.7,    3.6,    5.4,    5.2,    4.6,    4.5,    4.9,    5.1,    3.1,    3.4,    1.1,   -0.5,  999.0,    0.4,    0.2,  999.0,   -5.2,   -8.2,   -9.6,  -11.9,   -9.6,  -12.7,  -13.3,  -13.1,  -11.3,  -11.1,  -10.9,  -11.8,  -10.9,  -10.7,   -9.3,   -6.1,   -4.5,   -3.4,   -3.0,   -1.4,   -0.3,    0.2,   -0.1,    0.8,  999.0,    0.6,  999.0,   -0.5,   -0.3,    0.5,    2.4,    2.4,  999.0,  999.0,  999.0,  999.0,  999.0,  999.0,  999.0,  999.0,  999.0,  999.0,  999.0
2000/10/09 18:30,  999.0,   -2.6,   -2.5,   -2.7,   -1.5,    0.7,    2.3,    2.8,    4.2,    5.6,    4.5,  999.0,    6.7,    6.0,  999.0,  999.0,    2.0,    0.1,   -4.3,   -6.6,   -2.4,   -2.4,   -0.5,   -0.5,   -5.4,   -1.7,   -7.1,   -5.9,   -6.2,   -8.1,   -8.6,  -10.7,  -12.2,  -11.1,  -10.3,   -9.2,   -9.0,   -7.5,   -4.5,   -2.5,   -1.3,    0.3,    1.0,    2.4,    4.0,    4.0,    3.7,    3.3,    2.9,    3.0,    3.5,  999.0,  999.0,  999.0,  999.0,  999.0,  999.0,  999.0,  999.0,  999.0,  999.0,  999.0,  999.0
2000/10/09 18:40,    0.1,   -0.1,    0.3,   -2.3,   -1.5,   -2.3,   -1.6,   -0.3,    0.3,    4.4,    5.0,    3.7,    4.9,    3.2,    2.8,    2.4,    1.8,   -2.9,   -4.7,   -5.4,   -6.6,   -7.7,   -7.1,   -5.4,   -3.1,   -6.1,  -14.1,  -12.4,  -11.0,  -10.2,  -10.6,   -8.2,   -8.2,   -6.2,   -4.5,   -4.5,   -2.7,   -3.6,   -3.2,   -2.5,   -4.1,   -2.7,   -1.1,   -0.9,    0.5,  999.0,    0.7,    1.4,    1.3,    1.9,    2.4,    3.2,    3.6,  999.0,  999.0,  999.0,  999.0,  999.0,  999.0,  999.0,  999.0,  999.0,  999.0
2000/10/09 18:50,    1.0,    2.7,    3.6,   -0.6,   -0.1,   -0.2,   -2.7,   -3.2,   -0.9,    0.6,   -0.2,   -2.3,    1.5,    1.8,    2.3,    4.8,    6.2,    3.4,    3.4,    2.7,    0.1,   -2.8,   -5.4,   -7.0,   -7.5,  -11.2,  -12.0,  -12.6,  -11.4,  -12.0,  -13.5,  -17.5,  999.0,  999.0,  999.0,  999.0,  999.0,  999.0,    0.6,   -0.1,    1.0,    0.8,   -1.0,   -1.2,   -0.7,   -0.9,   -0.5,    2.1,    1.7,  999.0,    2.5,    2.2,  999.0,  999.0,  999.0,  999.0,  999.0,  999.0,  999.0,  999.0,  999.0,  999.0,  999.0
2000/10/09 19:00,    1.0,   -0.1,    0.3,    0.3,    2.2,    5.0,    5.8,    5.7,    5.9,    4.9,    4.9,    3.9,    6.2,    1.7,    0.1,   -2.0,   -3.9,   -2.2,   -5.0,   -4.0,   -1.9,   -3.3,   -4.2,   -3.5,   -3.8,   -0.2,   -0.3,   -6.7,  999.0,   -6.2,   -7.9,   -5.7,  999.0,  999.0,  999.0,  999.0,  999.0,  999.0,  999.0,  999.0,  999.0,    1.9,    2.5,    2.5,    1.7,    0.8,    0.5,    0.7,    1.1,    1.8,  999.0,    2.3,    2.6,    3.0,  999.0,  999.0,  999.0,  999.0,  999.0,  999.0,  999.0,  999.0,  999.0
2000/10/09 19:10,   -2.5,   -2.8,   -2.6,   -2.3,   -1.6,   -1.3,   -0.8,   -4.4,   -3.2,   -2.1,   -0.4,    2.1,    4.4,    5.7,    2.2,    3.1,    3.1,    4.2,    3.5,    3.3,    2.6,    3.1,    2.8,    2.9,  999.0,    5.8,    4.0,    0.7,    2.0,    0.8,   -0.5,   -6.3,  999.0,  999.0,  999.0,  999.0,  999.0,  999.0,  999.0,  999.0,  999.0,  999.0,  999.0,  999.0,    2.5,    3.5,  999.0,    4.2,    2.6,    0.9,    1.3,  999.0,    2.6,    3.0,  999.0,  999.0,  999.0,  999.0,  999.0,  999.0,  999.0,  999.0,  999.0
2000/10/09 19:20,   -3.9,   -2.5,   -1.0,   -2.0,    1.9,    2.8,    4.0,    3.4,    4.0,    2.5,    2.7,    5.6,    5.1,    3.6,    0.6,   -0.1,   -0.4,   -1.5,   -1.0,   -0.5,   -1.0,   -2.2,   -1.5,   -0.8,   -1.9,   -2.4,   -0.3,   -2.8,   -4.3,  999.0,  999.0,  999.0,  999.0,  999.0,  999.0,  999.0,  999.0,  999.0,  999.0,  999.0,  999.0,  999.0,  999.0,  999.0,  999.0,  999.0,    3.4,    4.7,    4.3,    3.2,    2.0,    0.6,    0.9,    1.7,    2.9,  999.0,  999.0,  999.0,  999.0,  999.0,  999.0,  999.0,  999.0
2000/10/09 19:30,   -1.4,   -0.4,   -2.2,   -2.7,   -1.3,    0.4,    2.2,  999.0,    0.1,  999.0,    6.7,    6.6,  999.0,    5.2,    0.7,   -0.5,   -1.4,  999.0,   -2.1,   -2.8,   -3.2,   -3.2,   -2.0,   -1.0,  999.0,   -1.3,   -3.4,   -4.4,   -6.4,  999.0,  999.0,  999.0,  999.0,  999.0,  999.0,  999.0,  999.0,  999.0,  999.0,  999.0,  999.0,  999.0,  999.0,  999.0,  999.0,  999.0,  999.0,    3.4,    4.4,    5.3,    4.8,    3.3,    4.0,    2.3,  999.0,  999.0,  999.0,  999.0,  999.0,  999.0,  999.0,  999.0,  999.0
2000/10/09 19:40,   -1.8,   -1.8,   -2.5,   -2.0,   -0.5,    1.4,  999.0,    0.5,   -2.0,   -2.3,   -0.7,  999.0,   -3.3,   -3.2,  999.0,   -0.9,   -3.8,   -4.0,   -4.8,   -2.0,   -2.7,   -3.6,   -3.0,  999.0,  999.0,   -2.9,   -2.2,   -2.3,   -2.5,  999.0,  999.0,  999.0,  999.0,  999.0,  999.0,  999.0,  999.0,  999.0,  999.0,  999.0,  999.0,  999.0,  999.0,  999.0,  999.0,  999.0,  999.0,  999.0,  999.0,    4.8,    5.1,    5.1,  999.0,  999.0,  999.0,  999.0,  999.0,  999.0,  999.0,  999.0,  999.0,  999.0,  999.0
2000/10/09 19:50,   -0.9,   -2.0,  999.0,   -0.5,    0.2,    0.8,    1.4,    1.9,   -0.5,   -1.0,   -3.5,   -3.9,   -3.7,   -4.7,   -2.7,   -3.7,  999.0,   -5.7,   -4.5,   -3.7,   -2.7,   -0.4,   -1.5,  999.0,  999.0,   -0.5,   -0.3,    0.2,  999.0,  999.0,  999.0,  999.0,  999.0,  999.0,  999.0,  999.0,  999.0,  999.0,  999.0,  999.0,  999.0,  999.0,  999.0,  999.0,  999.0,  999.0,  999.0,  999.0,  999.0,  999.0,  999.0,  999.0,  999.0,  999.0,  999.0,  999.0,  999.0,  999.0,  999.0,  999.0,  999.0,  999.0,  999.0
2000/10/09 20:00,   -3.7,   -0.9,   -0.6,    1.7,   -1.5,   -0.0,   -0.2,   -3.8,   -2.3,   -3.2,   -3.1,   -2.6,   -2.9,  999.0,  999.0,   -3.7,   -2.7,  999.0,  999.0,  999.0,   -3.5,  999.0,   -1.2,   -1.8,   -1.4,  999.0,   -2.4,   -2.2,  999.0,  999.0,  999.0,  999.0,  999.0,  999.0,  999.0,  999.0,  999.0,  999.0,  999.0,  999.0,  999.0,  999.0,  999.0,  999.0,  999.0,  999.0,  999.0,  999.0,  999.0,  999.0,  999.0,  999.0,  999.0,    7.0,  999.0,  999.0,  999.0,  999.0,  999.0,  999.0,  999.0,  999.0,  999.0
2000/10/09 20:10,   -0.8,   -1.8,  999.0,    0.8,   -0.7,  999.0,  999.0,   -0.2,   -1.7,   -0.5,   -1.7,   -0.7,   -1.9,   -2.8,   -2.4,   -2.2,   -2.0,  999.0,  999.0,  999.0,  999.0,   -1.5,   -0.8,  999.0,  999.0,  999.0,  999.0,  999.0,  999.0,  999.0,  999.0,  999.0,  999.0,  999.0,  999.0,  999.0,  999.0,  999.0,  999.0,  999.0,  999.0,  999.0,  999.0,  999.0,  999.0,  999.0,  999.0,  999.0,  999.0,  999.0,  999.0,  999.0,  999.0,  999.0,  999.0,  999.0,  999.0,  999.0,  999.0,  999.0,  999.0,  999.0,  999.0
2000/10/09 20:20,   -0.7,   -1.6,   -0.3,    0.2,   -2.5,   -0.2,    0.4,  999.0,   -0.2,   -0.5,   -1.4,   -1.7,   -3.4,   -2.0,   -2.1,   -2.6,   -3.8,   -3.5,  999.0,  999.0,  999.0,   -2.4,  999.0,  999.0,  999.0,  999.0,  999.0,  999.0,  999.0,  999.0,  999.0,  999.0,  999.0,  999.0,  999.0,  999.0,  999.0,  999.0,  999.0,  999.0,  999.0,  999.0,  999.0,  999.0,  999.0,  999.0,  999.0,  999.0,  999.0,  999.0,  999.0,  999.0,  999.0,  999.0,  999.0,  999.0,  999.0,  999.0,  999.0,  999.0,  999.0,  999.0,  999.0
2000/10/09 20:30,  999.0,  999.0,   -2.6,   -1.4,   -3.0,   -1.6,   -1.9,   -1.6,   -1.1,   -1.5,   -1.1,    0.4,  999.0,   -0.2,   -1.4,   -1.7,   -2.0,   -2.4,   -3.2,  999.0,  999.0,  999.0,   -0.0,  999.0,  999.0,  999.0,  999.0,  999.0,  999.0,  999.0,  999.0,  999.0,  999.0,  999.0,  999.0,  999.0,  999.0,  999.0,  999.0,  999.0,  999.0,  999.0,  999.0,  999.0,  999.0,  999.0,  999.0,  999.0,  999.0,  999.0,  999.0,  999.0,  999.0,  999.0,  999.0,  999.0,  999.0,  999.0,  999.0,  999.0,  999.0,  999.0,  999.0
2000/10/09 20:40,  999.0,  999.0,  999.0,   -2.1,   -3.3,   -2.7,   -2.6,  999.0,    1.8,    1.1,    0.8,    0.6,    0.1,   -1.5,   -2.8,   -3.4,   -3.2,  999.0,   -4.2,   -3.1,  999.0,  999.0,  999.0,  999.0,  999.0,  999.0,  999.0,  999.0,  999.0,  999.0,  999.0,  999.0,  999.0,  999.0,  999.0,  999.0,  999.0,  999.0,  999.0,  999.0,  999.0,  999.0,  999.0,  999.0,  999.0,  999.0,  999.0,  999.0,  999.0,  999.0,  999.0,  999.0,  999.0,  999.0,  999.0,  999.0,  999.0,  999.0,  999.0,  999.0,  999.0,  999.0,  999.0
2000/10/09 20:50,  999.0,   -1.3,   -2.6,   -4.0,   -1.7,  999.0,   -3.8,   -1.7,   -0.2,    0.6,    0.4,    0.4,    0.4,   -0.8,   -1.4,  999.0,   -3.9,   -3.7,   -3.7,   -1.6,   -1.0,  999.0,  999.0,  999.0,  999.0,  999.0,  999.0,  999.0,  999.0,  999.0,  999.0,  999.0,  999.0,  999.0,  999.0,  999.0,  999.0,  999.0,  999.0,  999.0,  999.0,  999.0,  999.0,  999.0,  999.0,  999.0,  999.0,  999.0,  999.0,  999.0,  999.0,  999.0,  999.0,  999.0,  999.0,  999.0,  999.0,  999.0,  999.0,  999.0,  999.0,  999.0,  999.0
2000/10/09 21:00,   -0.1,   -2.7,   -4.9,   -2.9,   -3.7,   -5.2,   -5.4,   -4.0,   -2.1,   -0.7,   -1.1,   -1.4,   -1.0,   -2.2,   -3.2,   -3.3,   -2.7,   -3.0,   -2.6,  999.0,  999.0,  999.0,  999.0,  999.0,  999.0,  999.0,  999.0,  999.0,  999.0,  999.0,  999.0,  999.0,  999.0,  999.0,  999.0,  999.0,  999.0,  999.0,  999.0,  999.0,  999.0,  999.0,  999.0,  999.0,  999.0,  999.0,  999.0,  999.0,  999.0,  999.0,  999.0,  999.0,  999.0,  999.0,  999.0,  999.0,  999.0,  999.0,  999.0,  999.0,  999.0,  999.0,  999.0
2000/10/09 21:10,    0.1,   -1.6,   -4.0,   -4.8,   -4.1,   -3.4,   -4.0,   -2.8,   -2.6,   -2.2,   -1.5,   -3.2,   -4.3,   -4.8,   -4.5,   -4.4,   -5.5,   -4.7,   -2.7,   -0.6,  999.0,  999.0,  999.0,  999.0,  999.0,  999.0,  999.0,  999.0,  999.0,  999.0,  999.0,  999.0,  999.0,  999.0,  999.0,  999.0,  999.0,  999.0,  999.0,  999.0,  999.0,  999.0,  999.0,  999.0,  999.0,  999.0,  999.0,  999.0,  999.0,  999.0,  999.0,  999.0,  999.0,  999.0,  999.0,  999.0,  999.0,  999.0,  999.0,  999.0,  999.0,  999.0,  999.0
2000/10/09 21:20,    1.1,   -1.8,   -2.9,   -3.9,   -2.9,   -4.2,   -4.0,   -4.0,   -3.0,   -2.7,   -2.4,   -3.1,   -4.3,   -4.3,   -4.5,   -4.8,   -4.4,   -3.5,  999.0,  999.0,  999.0,  999.0,  999.0,  999.0,  999.0,  999.0,  999.0,  999.0,  999.0,  999.0,  999.0,  999.0,  999.0,  999.0,  999.0,  999.0,  999.0,  999.0,  999.0,  999.0,  999.0,  999.0,  999.0,  999.0,  999.0,  999.0,  999.0,  999.0,  999.0,  999.0,  999.0,  999.0,  999.0,  999.0,  999.0,  999.0,  999.0,  999.0,  999.0,  999.0,  999.0,  999.0,  999.0
2000/10/09 21:30,    1.7,   -0.2,   -3.0,   -3.8,   -5.5,   -7.0,   -5.1,   -3.2,  999.0,   -4.5,   -5.9,   -5.4,   -4.9,   -5.4,   -5.0,   -4.9,   -4.6,   -2.3,  999.0,  999.0,  999.0,  999.0,  999.0,  999.0,  999.0,  999.0,  999.0,  999.0,  999.0,  999.0,  999.0,  999.0,  999.0,  999.0,  999.0,  999.0,  999.0,  999.0,  999.0,  999.0,  999.0,  999.0,  999.0,  999.0,  999.0,  999.0,  999.0,  999.0,  999.0,  999.0,  999.0,  999.0,  999.0,  999.0,  999.0,  999.0,  999.0,  999.0,  999.0,  999.0,  999.0,  999.0,  999.0
2000/10/09 21:40,    0.3,   -0.2,   -2.3,   -3.5,   -4.3,   -5.5,   -4.0,   -2.7,   -2.7,   -3.7,   -3.0,   -3.2,   -4.0,   -4.4,   -3.7,   -4.6,   -4.8,   -3.4,  999.0,  999.0,  999.0,  999.0,  999.0,  999.0,  999.0,  999.0,  999.0,  999.0,  999.0,  999.0,  999.0,  999.0,  999.0,  999.0,  999.0,  999.0,  999.0,  999.0,  999.0,  999.0,  999.0,  999.0,  999.0,  999.0,  999.0,  999.0,  999.0,  999.0,  999.0,  999.0,  999.0,  999.0,  999.0,  999.0,  999.0,  999.0,  999.0,  999.0,  999.0,  999.0,  999.0,  999.0,  999.0
2000/10/09 21:50,    1.7,   -0.2,   -3.7,   -4.6,   -4.9,   -5.4,   -3.4,   -2.6,   -2.2,  999.0,   -4.7,   -2.0,   -2.4,   -4.6,   -3.8,   -4.0,   -3.4,   -1.8,   -0.2,  999.0,  999.0,  999.0,  999.0,  999.0,  999.0,  999.0,  999.0,  999.0,  999.0,  999.0,  999.0,  999.0,  999.0,  999.0,  999.0,  999.0,  999.0,  999.0,  999.0,  999.0,  999.0,  999.0,  999.0,  999.0,  999.0,  999.0,  999.0,  999.0,  999.0,  999.0,  999.0,  999.0,  999.0,  999.0,  999.0,  999.0,  999.0,  999.0,  999.0,  999.0,  999.0,  999.0,  999.0
2000/10/09 22:00,    0.0,   -1.5,   -2.5,   -3.9,   -4.5,   -4.4,   -2.9,  999.0,   -2.2,  999.0,  999.0,  999.0,   -2.6,   -3.6,   -4.5,   -4.8,   -4.4,   -2.8,  999.0,  999.0,  999.0,  999.0,  999.0,  999.0,  999.0,  999.0,  999.0,  999.0,  999.0,  999.0,  999.0,  999.0,  999.0,  999.0,  999.0,  999.0,  999.0,  999.0,  999.0,  999.0,  999.0,  999.0,  999.0,  999.0,  999.0,  999.0,  999.0,  999.0,  999.0,  999.0,  999.0,  999.0,  999.0,  999.0,  999.0,  999.0,  999.0,  999.0,  999.0,  999.0,  999.0,  999.0,  999.0
2000/10/09 22:10,    0.5,   -0.3,   -1.6,   -3.3,   -3.7,   -4.0,  999.0,   -2.3,   -1.7,  999.0,  999.0,   -4.8,  999.0,  999.0,   -3.6,   -3.7,   -3.8,   -3.6,  999.0,  999.0,  999.0,  999.0,  999.0,  999.0,  999.0,  999.0,  999.0,  999.0,  999.0,  999.0,  999.0,  999.0,  999.0,  999.0,  999.0,  999.0,  999.0,  999.0,  999.0,  999.0,  999.0,  999.0,  999.0,  999.0,  999.0,  999.0,  999.0,  999.0,  999.0,  999.0,  999.0,  999.0,  999.0,  999.0,  999.0,  999.0,  999.0,  999.0,  999.0,  999.0,  999.0,  999.0,  999.0
2000/10/09 22:20,  999.0,   -1.3,   -1.3,   -2.8,   -3.5,   -3.5,   -3.1,   -3.0,  999.0,   -2.1,  999.0,  999.0,  999.0,  999.0,   -3.5,   -4.2,   -3.9,   -4.1,   -2.4,  999.0,  999.0,  999.0,  999.0,  999.0,  999.0,  999.0,  999.0,  999.0,  999.0,  999.0,  999.0,  999.0,  999.0,  999.0,  999.0,  999.0,  999.0,  999.0,  999.0,  999.0,  999.0,  999.0,  999.0,  999.0,  999.0,  999.0,  999.0,  999.0,  999.0,  999.0,  999.0,  999.0,  999.0,  999.0,  999.0,  999.0,  999.0,  999.0,  999.0,  999.0,  999.0,  999.0,  999.0
2000/10/09 22:30,    0.2,  999.0,   -2.4,   -3.3,   -3.7,   -2.5,   -2.8,   -3.0,   -2.0,   -2.9,  999.0,  999.0,  999.0,   -3.9,   -3.4,   -2.9,  999.0,   -3.1,  999.0,  999.0,  999.0,  999.0,  999.0,  999.0,  999.0,  999.0,  999.0,  999.0,  999.0,  999.0,  999.0,  999.0,  999.0,  999.0,  999.0,  999.0,  999.0,  999.0,  999.0,  999.0,  999.0,  999.0,  999.0,  999.0,  999.0,  999.0,  999.0,  999.0,  999.0,  999.0,  999.0,  999.0,  999.0,  999.0,  999.0,  999.0,  999.0,  999.0,  999.0,  999.0,  999.0,  999.0,  999.0
2000/10/09 22:40,   -0.5,   -1.1,   -1.1,   -1.5,   -3.0,   -1.7,   -3.1,   -4.2,   -4.6,   -3.0,   -2.3,  999.0,   -2.8,   -4.1,   -4.5,  999.0,   -3.3,   -2.0,  999.0,  999.0,  999.0,  999.0,  999.0,  999.0,  999.0,  999.0,  999.0,  999.0,  999.0,  999.0,  999.0,  999.0,  999.0,  999.0,  999.0,  999.0,  999.0,  999.0,  999.0,  999.0,  999.0,  999.0,  999.0,  999.0,  999.0,  999.0,  999.0,  999.0,  999.0,  999.0,  999.0,  999.0,  999.0,  999.0,  999.0,  999.0,  999.0,  999.0,  999.0,  999.0,  999.0,  999.0,  999.0
2000/10/09 22:50,   -1.2,   -1.1,   -1.7,   -2.1,   -4.3,   -1.5,   -2.0,   -0.3,   -0.5,   -0.6,   -0.9,   -0.2,   -5.0,  999.0,   -5.7,   -5.9,  999.0,  999.0,  999.0,  999.0,  999.0,  999.0,  999.0,  999.0,  999.0,  999.0,  999.0,  999.0,  999.0,  999.0,  999.0,  999.0,  999.0,  999.0,  999.0,  999.0,  999.0,  999.0,  999.0,  999.0,  999.0,  999.0,  999.0,  999.0,  999.0,  999.0,  999.0,  999.0,  999.0,  999.0,  999.0,  999.0,  999.0,  999.0,  999.0,  999.0,  999.0,  999.0,  999.0,  999.0,  999.0,  999.0,  999.0
2000/10/09 23:00,   -1.3,   -1.7,   -2.3,   -3.4,   -3.6,  999.0,   -3.7,  999.0,   -2.7,   -2.0,   -2.2,  999.0,  999.0,   -6.3,   -2.7,   -2.0,  999.0,  999.0,  999.0,  999.0,  999.0,  999.0,  999.0,  999.0,  999.0,  999.0,  999.0,  999.0,  999.0,  999.0,  999.0,  999.0,  999.0,  999.0,  999.0,  999.0,  999.0,  999.0,  999.0,  999.0,  999.0,  999.0,  999.0,  999.0,  999.0,  999.0,  999.0,  999.0,  999.0,  999.0,  999.0,  999.0,  999.0,  999.0,  999.0,  999.0,  999.0,  999.0,  999.0,  999.0,  999.0,  999.0,  999.0
2000/10/09 23:10,  999.0,  999.0,   -2.1,   -3.1,  999.0,   -3.1,   -3.5,  999.0,   -1.7,  999.0,  999.0,  999.0,  999.0,  999.0,  999.0,  999.0,  999.0,  999.0,  999.0,  999.0,  999.0,  999.0,  999.0,  999.0,  999.0,  999.0,  999.0,  999.0,  999.0,  999.0,  999.0,  999.0,  999.0,  999.0,  999.0,  999.0,  999.0,  999.0,  999.0,  999.0,  999.0,  999.0,  999.0,  999.0,  999.0,  999.0,  999.0,  999.0,  999.0,  999.0,  999.0,  999.0,  999.0,  999.0,  999.0,  999.0,  999.0,  999.0,  999.0,  999.0,  999.0,  999.0,  999.0
2000/10/09 23:20,   -1.6,  999.0,  999.0,  999.0,  999.0,  999.0,  999.0,  999.0,  999.0,  999.0,  999.0,    0.9,  999.0,  999.0,  999.0,  999.0,  999.0,  999.0,  999.0,  999.0,  999.0,  999.0,  999.0,  999.0,  999.0,  999.0,  999.0,  999.0,  999.0,  999.0,  999.0,  999.0,  999.0,  999.0,  999.0,  999.0,  999.0,  999.0,  999.0,  999.0,  999.0,  999.0,  999.0,  999.0,  999.0,  999.0,  999.0,  999.0,  999.0,  999.0,  999.0,  999.0,  999.0,  999.0,  999.0,  999.0,  999.0,  999.0,  999.0,  999.0,  999.0,  999.0,  999.0
2000/10/09 23:30,   -0.5,   -3.8,  999.0,   -1.6,   -1.8,  999.0,  999.0,  999.0,  999.0,  999.0,  999.0,  999.0,  999.0,  999.0,   -0.6,  999.0,  999.0,  999.0,  999.0,  999.0,  999.0,  999.0,  999.0,  999.0,  999.0,  999.0,  999.0,  999.0,  999.0,  999.0,  999.0,  999.0,  999.0,  999.0,  999.0,  999.0,  999.0,  999.0,  999.0,  999.0,  999.0,  999.0,  999.0,  999.0,  999.0,  999.0,  999.0,  999.0,  999.0,  999.0,  999.0,  999.0,  999.0,  999.0,  999.0,  999.0,  999.0,  999.0,  999.0,  999.0,  999.0,  999.0,  999.0
2000/10/09 23:40,  999.0,   -0.8,   -0.4,  999.0,   -0.5,  999.0,  999.0,  999.0,  999.0,  999.0,  999.0,  999.0,  999.0,  999.0,    0.2,  999.0,  999.0,  999.0,  999.0,  999.0,  999.0,  999.0,  999.0,  999.0,  999.0,  999.0,  999.0,  999.0,  999.0,  999.0,  999.0,  999.0,  999.0,  999.0,  999.0,  999.0,  999.0,  999.0,  999.0,  999.0,  999.0,  999.0,  999.0,  999.0,  999.0,  999.0,  999.0,  999.0,  999.0,  999.0,  999.0,  999.0,  999.0,  999.0,  999.0,  999.0,  999.0,  999.0,  999.0,  999.0,  999.0,  999.0,  999.0
2000/10/09 23:50,    0.1,  999.0,  999.0,   -2.8,  999.0,  999.0,  999.0,  999.0,  999.0,  999.0,  999.0,   -7.7,  999.0,  999.0,  999.0,  999.0,  999.0,  999.0,  999.0,  999.0,  999.0,  999.0,  999.0,  999.0,  999.0,  999.0,  999.0,  999.0,  999.0,  999.0,  999.0,  999.0,  999.0,  999.0,  999.0,  999.0,  999.0,  999.0,  999.0,  999.0,  999.0,  999.0,  999.0,  999.0,  999.0,  999.0,  999.0,  999.0,  999.0,  999.0,  999.0,  999.0,  999.0,  999.0,  999.0,  999.0,  999.0,  999.0,  999.0,  999.0,  999.0,  999.0,  999.0
